Time,TemperatureF,DewpointF,PressureIn,WindDirection,WindDirectionDegrees,WindSpeedMPH,WindSpeedGustMPH,Humidity,HourlyPrecipIn,Conditions,Clouds,dailyrainin,SoftwareType,DateUTC
2013-07-10 00:00:00,71.0,45.5,29.77,West,264,0.0,1.0,40,0.00,,,0.00,Wunderground v.1.15,2013-07-10 06:00:00,
2013-07-10 00:01:00,71.0,45.5,29.77,West,264,0.0,1.0,40,0.00,,,0.00,Wunderground v.1.15,2013-07-10 06:01:00,
2013-07-10 00:02:00,70.9,45.4,29.77,West,264,0.0,1.0,40,0.00,,,0.00,Wunderground v.1.15,2013-07-10 06:02:00,
2013-07-10 00:05:00,70.6,45.1,29.77,West,264,0.0,1.0,40,0.00,,,0.00,Wunderground v.1.15,2013-07-10 06:05:00,
2013-07-10 00:06:00,70.6,45.1,29.77,West,264,0.0,1.0,40,0.00,,,0.00,Wunderground v.1.15,2013-07-10 06:06:00,
2013-07-10 00:07:00,70.5,45.0,29.77,West,264,0.0,1.0,40,0.00,,,0.00,Wunderground v.1.15,2013-07-10 06:07:00,
2013-07-10 00:11:00,70.2,44.7,29.77,West,264,0.0,1.0,40,0.00,,,0.00,Wunderground v.1.15,2013-07-10 06:11:00,
2013-07-10 00:12:00,70.1,44.6,29.77,West,264,1.0,1.0,40,0.00,,,0.00,Wunderground v.1.15,2013-07-10 06:12:00,
2013-07-10 00:13:00,70.1,44.6,29.77,West,264,0.0,1.0,40,0.00,,,0.00,Wunderground v.1.15,2013-07-10 06:13:00,
2013-07-10 00:16:00,70.0,44.6,29.77,West,264,0.0,1.0,40,0.00,,,0.00,Wunderground v.1.15,2013-07-10 06:16:00,
2013-07-10 00:17:00,70.0,44.6,29.77,West,264,0.0,1.0,40,0.00,,,0.00,Wunderground v.1.15,2013-07-10 06:17:00,
2013-07-10 00:18:00,69.9,44.5,29.77,West,264,0.0,1.0,40,0.00,,,0.00,Wunderground v.1.15,2013-07-10 06:18:00,
2013-07-10 00:21:00,69.8,45.0,29.77,West,264,0.0,1.0,41,0.00,,,0.00,Wunderground v.1.15,2013-07-10 06:21:00,
2013-07-10 00:23:00,69.7,44.9,29.77,West,264,0.0,1.0,41,0.00,,,0.00,Wunderground v.1.15,2013-07-10 06:23:00,
2013-07-10 00:26:00,69.3,44.6,29.77,West,264,0.0,1.0,41,0.00,,,0.00,Wunderground v.1.15,2013-07-10 06:26:00,
2013-07-10 00:28:00,69.1,44.4,29.77,West,264,0.0,1.0,41,0.00,,,0.00,Wunderground v.1.15,2013-07-10 06:28:00,
2013-07-10 00:31:00,68.9,44.2,29.77,West,264,0.0,1.0,41,0.00,,,0.00,Wunderground v.1.15,2013-07-10 06:31:00,
2013-07-10 00:32:00,68.8,44.1,29.77,West,264,0.0,1.0,41,0.00,,,0.00,Wunderground v.1.15,2013-07-10 06:32:00,
2013-07-10 00:33:00,68.8,44.1,29.77,West,264,0.0,1.0,41,0.00,,,0.00,Wunderground v.1.15,2013-07-10 06:33:00,
2013-07-10 00:34:00,68.7,44.0,29.77,West,264,0.0,1.0,41,0.00,,,0.00,Wunderground v.1.15,2013-07-10 06:34:00,
2013-07-10 00:36:00,68.6,43.9,29.77,West,264,0.0,1.0,41,0.00,,,0.00,Wunderground v.1.15,2013-07-10 06:36:00,
2013-07-10 00:37:00,68.6,43.9,29.77,West,264,0.0,1.0,41,0.00,,,0.00,Wunderground v.1.15,2013-07-10 06:37:00,
2013-07-10 00:39:00,68.5,43.9,29.77,West,264,0.0,1.0,41,0.00,,,0.00,Wunderground v.1.15,2013-07-10 06:39:00,
2013-07-10 00:41:00,68.5,43.9,29.77,West,264,0.0,0.0,41,0.00,,,0.00,Wunderground v.1.15,2013-07-10 06:41:00,
2013-07-10 00:42:00,68.5,43.9,29.77,West,264,0.0,0.0,41,0.00,,,0.00,Wunderground v.1.15,2013-07-10 06:42:00,
2013-07-10 00:44:00,68.4,43.8,29.77,West,264,0.0,1.0,41,0.00,,,0.00,Wunderground v.1.15,2013-07-10 06:44:00,
2013-07-10 00:46:00,68.4,43.8,29.77,West,264,0.0,1.0,41,0.00,,,0.00,Wunderground v.1.15,2013-07-10 06:46:00,
2013-07-10 00:47:00,68.4,43.8,29.77,West,264,0.0,1.0,41,0.00,,,0.00,Wunderground v.1.15,2013-07-10 06:47:00,
2013-07-10 00:49:00,68.4,43.8,29.77,West,264,0.0,1.0,41,0.00,,,0.00,Wunderground v.1.15,2013-07-10 06:49:00,
2013-07-10 00:52:00,68.4,43.8,29.77,West,264,0.0,0.0,41,0.00,,,0.00,Wunderground v.1.15,2013-07-10 06:52:00,
2013-07-10 00:54:00,68.4,43.8,29.77,West,264,0.0,0.0,41,0.00,,,0.00,Wunderground v.1.15,2013-07-10 06:54:00,
2013-07-10 00:55:00,68.4,43.8,29.77,West,264,0.0,0.0,41,0.00,,,0.00,Wunderground v.1.15,2013-07-10 06:55:00,
2013-07-10 00:57:00,68.4,43.8,29.78,West,264,0.0,0.0,41,0.00,,,0.00,Wunderground v.1.15,2013-07-10 06:57:00,
2013-07-10 01:00:00,68.4,44.4,29.78,West,264,0.0,0.0,42,0.00,,,0.00,Wunderground v.1.15,2013-07-10 07:00:00,
2013-07-10 01:02:00,68.3,44.3,29.78,West,264,0.0,0.0,42,0.00,,,0.00,Wunderground v.1.15,2013-07-10 07:02:00,
2013-07-10 01:03:00,68.3,44.3,29.78,West,264,0.0,0.0,42,0.00,,,0.00,Wunderground v.1.15,2013-07-10 07:03:00,
2013-07-10 01:05:00,68.3,44.3,29.78,West,264,0.0,0.0,42,0.00,,,0.00,Wunderground v.1.15,2013-07-10 07:05:00,
2013-07-10 01:08:00,68.2,44.2,29.78,West,264,0.0,0.0,42,0.00,,,0.00,Wunderground v.1.15,2013-07-10 07:08:00,
2013-07-10 01:10:00,68.2,44.2,29.78,West,264,0.0,0.0,42,0.00,,,0.00,Wunderground v.1.15,2013-07-10 07:10:00,
2013-07-10 01:11:00,68.2,44.2,29.78,West,264,0.0,0.0,42,0.00,,,0.00,Wunderground v.1.15,2013-07-10 07:11:00,
2013-07-10 01:13:00,68.1,44.1,29.78,West,264,0.0,0.0,42,0.00,,,0.00,Wunderground v.1.15,2013-07-10 07:13:00,
2013-07-10 01:15:00,68.0,44.0,29.78,West,264,0.0,0.0,42,0.00,,,0.00,Wunderground v.1.15,2013-07-10 07:15:00,
2013-07-10 01:16:00,68.0,44.0,29.78,West,264,1.0,1.0,42,0.00,,,0.00,Wunderground v.1.15,2013-07-10 07:16:00,
2013-07-10 01:18:00,68.0,44.0,29.78,West,264,0.0,1.0,42,0.00,,,0.00,Wunderground v.1.15,2013-07-10 07:18:00,
2013-07-10 01:20:00,67.9,44.6,29.78,West,264,0.0,0.0,43,0.00,,,0.00,Wunderground v.1.15,2013-07-10 07:20:00,
2013-07-10 01:22:00,67.9,45.2,29.78,West,264,0.0,1.0,44,0.00,,,0.00,Wunderground v.1.15,2013-07-10 07:22:00,
2013-07-10 01:23:00,67.8,45.1,29.78,West,264,0.0,1.0,44,0.00,,,0.00,Wunderground v.1.15,2013-07-10 07:23:00,
2013-07-10 01:24:00,67.8,45.1,29.78,West,264,0.0,1.0,44,0.00,,,0.00,Wunderground v.1.15,2013-07-10 07:24:00,
2013-07-10 01:26:00,67.7,45.0,29.79,West,264,0.0,1.0,44,0.00,,,0.00,Wunderground v.1.15,2013-07-10 07:26:00,
2013-07-10 01:27:00,67.7,45.0,29.79,West,264,0.0,1.0,44,0.00,,,0.00,Wunderground v.1.15,2013-07-10 07:27:00,
2013-07-10 01:28:00,67.7,45.0,29.79,West,264,0.0,1.0,44,0.00,,,0.00,Wunderground v.1.15,2013-07-10 07:28:00,
2013-07-10 01:29:00,67.6,44.9,29.79,West,263,1.0,1.0,44,0.00,,,0.00,Wunderground v.1.15,2013-07-10 07:29:00,
2013-07-10 01:31:00,67.5,44.8,29.79,West,265,0.0,3.0,44,0.00,,,0.00,Wunderground v.1.15,2013-07-10 07:31:00,
2013-07-10 01:32:00,67.5,44.8,29.79,West,265,0.0,3.0,44,0.00,,,0.00,Wunderground v.1.15,2013-07-10 07:32:00,
2013-07-10 01:33:00,67.5,44.8,29.79,West,264,0.0,3.0,44,0.00,,,0.00,Wunderground v.1.15,2013-07-10 07:33:00,
2013-07-10 01:34:00,67.4,44.7,29.79,West,265,0.0,3.0,44,0.00,,,0.00,Wunderground v.1.15,2013-07-10 07:34:00,
2013-07-10 01:37:00,67.3,44.6,29.79,West,269,3.0,5.0,44,0.00,,,0.00,Wunderground v.1.15,2013-07-10 07:37:00,
2013-07-10 01:39:00,67.2,44.5,29.79,West,269,0.0,5.0,44,0.00,,,0.00,Wunderground v.1.15,2013-07-10 07:39:00,
2013-07-10 01:42:00,67.1,44.4,29.79,West,270,0.0,3.0,44,0.00,,,0.00,Wunderground v.1.15,2013-07-10 07:42:00,
2013-07-10 01:44:00,67.1,44.4,29.79,WNW,290,0.0,7.0,44,0.00,,,0.00,Wunderground v.1.15,2013-07-10 07:44:00,
2013-07-10 01:45:00,67.1,44.4,29.79,NW,308,3.0,7.0,44,0.00,,,0.00,Wunderground v.1.15,2013-07-10 07:45:00,
2013-07-10 01:47:00,67.2,44.5,29.80,NNW,336,7.0,7.0,44,0.00,,,0.00,Wunderground v.1.15,2013-07-10 07:47:00,
2013-07-10 01:49:00,67.2,44.5,29.80,NNW,338,0.0,7.0,44,0.00,,,0.00,Wunderground v.1.15,2013-07-10 07:49:00,
2013-07-10 01:50:00,67.3,44.6,29.80,NNW,340,3.0,5.0,44,0.00,,,0.00,Wunderground v.1.15,2013-07-10 07:50:00,
2013-07-10 01:53:00,67.3,44.6,29.80,NNW,333,7.0,8.0,44,0.00,,,0.00,Wunderground v.1.15,2013-07-10 07:53:00,
2013-07-10 01:54:00,67.4,44.7,29.80,NNW,336,0.0,8.0,44,0.00,,,0.00,Wunderground v.1.15,2013-07-10 07:54:00,
2013-07-10 01:56:00,67.4,44.7,29.80,NNW,334,0.0,8.0,44,0.00,,,0.00,Wunderground v.1.15,2013-07-10 07:56:00,
2013-07-10 01:58:00,67.4,44.7,29.80,North,360,0.0,8.0,44,0.00,,,0.00,Wunderground v.1.15,2013-07-10 07:58:00,
2013-07-10 01:59:00,67.4,44.7,29.80,NNW,341,1.0,8.0,44,0.00,,,0.00,Wunderground v.1.15,2013-07-10 07:59:00,
2013-07-10 02:01:00,67.4,44.7,29.80,NNW,340,3.0,6.0,44,0.00,,,0.00,Wunderground v.1.15,2013-07-10 08:01:00,
2013-07-10 02:03:00,67.4,44.7,29.80,NNW,340,0.0,6.0,44,0.00,,,0.00,Wunderground v.1.15,2013-07-10 08:03:00,
2013-07-10 02:04:00,67.4,44.7,29.80,NNW,338,3.0,6.0,44,0.00,,,0.00,Wunderground v.1.15,2013-07-10 08:04:00,
2013-07-10 02:05:00,67.4,44.7,29.80,NNW,342,4.0,6.0,44,0.00,,,0.00,Wunderground v.1.15,2013-07-10 08:05:00,
2013-07-10 02:06:00,67.4,45.3,29.80,NNW,342,0.0,6.0,45,0.00,,,0.00,Wunderground v.1.15,2013-07-10 08:06:00,
2013-07-10 02:08:00,67.4,45.3,29.80,NNW,342,2.0,6.0,45,0.00,,,0.00,Wunderground v.1.15,2013-07-10 08:08:00,
2013-07-10 02:10:00,67.4,45.3,29.80,NNW,335,7.0,7.0,45,0.00,,,0.00,Wunderground v.1.15,2013-07-10 08:10:00,
2013-07-10 02:13:00,67.4,45.3,29.80,NNW,329,3.0,9.0,45,0.00,,,0.00,Wunderground v.1.15,2013-07-10 08:13:00,
2013-07-10 02:14:00,67.4,45.9,29.80,NNW,327,3.0,9.0,46,0.00,,,0.00,Wunderground v.1.15,2013-07-10 08:14:00,
2013-07-10 02:15:00,67.3,45.8,29.80,North,360,2.0,9.0,46,0.00,,,0.00,Wunderground v.1.15,2013-07-10 08:15:00,
2013-07-10 02:17:00,67.2,45.7,29.80,North,360,2.0,9.0,46,0.00,,,0.00,Wunderground v.1.15,2013-07-10 08:17:00,
2013-07-10 02:18:00,67.2,45.7,29.80,North,360,3.0,9.0,46,0.00,,,0.00,Wunderground v.1.15,2013-07-10 08:18:00,
2013-07-10 02:19:00,67.2,45.7,29.80,NW,325,4.0,9.0,46,0.00,,,0.00,Wunderground v.1.15,2013-07-10 08:19:00,
2013-07-10 02:20:00,67.2,45.7,29.80,NW,325,2.0,4.0,46,0.00,,,0.00,Wunderground v.1.15,2013-07-10 08:20:00,
2013-07-10 02:23:00,67.1,45.6,29.80,NNW,341,4.0,9.0,46,0.00,,,0.00,Wunderground v.1.15,2013-07-10 08:23:00,
2013-07-10 02:24:00,67.1,45.6,29.80,NW,322,6.0,10.0,46,0.00,,,0.00,Wunderground v.1.15,2013-07-10 08:24:00,
2013-07-10 02:25:00,67.0,46.1,29.80,NW,323,7.0,11.0,47,0.00,,,0.00,Wunderground v.1.15,2013-07-10 08:25:00,
2013-07-10 02:28:00,66.9,46.0,29.80,North,360,6.0,11.0,47,0.00,,,0.00,Wunderground v.1.15,2013-07-10 08:28:00,
2013-07-10 02:29:00,66.9,46.6,29.80,NW,325,0.0,11.0,48,0.00,,,0.00,Wunderground v.1.15,2013-07-10 08:29:00,
2013-07-10 02:30:00,66.9,46.6,29.80,North,360,5.0,7.0,48,0.00,,,0.00,Wunderground v.1.15,2013-07-10 08:30:00,
2013-07-10 02:31:00,66.8,46.5,29.80,North,360,6.0,9.0,48,0.00,,,0.00,Wunderground v.1.15,2013-07-10 08:31:00,
2013-07-10 02:33:00,66.8,46.5,29.80,North,360,5.0,9.0,48,0.00,,,0.00,Wunderground v.1.15,2013-07-10 08:33:00,
2013-07-10 02:34:00,66.8,46.5,29.79,NNW,332,1.0,9.0,48,0.00,,,0.00,Wunderground v.1.15,2013-07-10 08:34:00,
2013-07-10 02:35:00,66.7,46.9,29.79,North,355,6.0,9.0,49,0.00,,,0.00,Wunderground v.1.15,2013-07-10 08:35:00,
2013-07-10 02:36:00,66.7,46.9,29.80,North,360,5.0,9.0,49,0.00,,,0.00,Wunderground v.1.15,2013-07-10 08:36:00,
2013-07-10 02:39:00,66.6,46.8,29.79,North,360,4.0,9.0,49,0.00,,,0.00,Wunderground v.1.15,2013-07-10 08:39:00,
2013-07-10 02:40:00,66.6,46.8,29.79,North,360,5.0,6.0,49,0.00,,,0.00,Wunderground v.1.15,2013-07-10 08:40:00,
2013-07-10 02:41:00,66.5,46.7,29.79,North,360,3.0,6.0,49,0.00,,,0.00,Wunderground v.1.15,2013-07-10 08:41:00,
2013-07-10 02:44:00,66.4,46.7,29.80,NNW,331,6.0,8.0,49,0.00,,,0.00,Wunderground v.1.15,2013-07-10 08:44:00,
2013-07-10 02:45:00,66.4,46.7,29.80,North,360,4.0,8.0,49,0.00,,,0.00,Wunderground v.1.15,2013-07-10 08:45:00,
2013-07-10 02:46:00,66.4,46.7,29.80,NNW,331,1.0,8.0,49,0.00,,,0.00,Wunderground v.1.15,2013-07-10 08:46:00,
2013-07-10 02:47:00,66.4,46.7,29.80,North,360,5.0,8.0,49,0.00,,,0.00,Wunderground v.1.15,2013-07-10 08:47:00,
2013-07-10 02:49:00,66.2,47.0,29.79,North,360,6.0,8.0,50,0.00,,,0.00,Wunderground v.1.15,2013-07-10 08:49:00,
2013-07-10 02:50:00,66.2,47.0,29.79,North,360,5.0,8.0,50,0.00,,,0.00,Wunderground v.1.15,2013-07-10 08:50:00,
2013-07-10 02:51:00,66.2,47.0,29.80,NW,325,1.0,8.0,50,0.00,,,0.00,Wunderground v.1.15,2013-07-10 08:51:00,
2013-07-10 02:53:00,66.2,47.0,29.79,NNW,327,2.0,8.0,50,0.00,,,0.00,Wunderground v.1.15,2013-07-10 08:53:00,
2013-07-10 02:55:00,66.1,47.4,29.79,NNW,327,3.0,11.0,51,0.00,,,0.00,Wunderground v.1.15,2013-07-10 08:55:00,
2013-07-10 02:56:00,66.1,47.4,29.79,North,360,7.0,11.0,51,0.00,,,0.00,Wunderground v.1.15,2013-07-10 08:56:00,
2013-07-10 02:58:00,66.0,47.3,29.79,NNW,340,11.0,13.0,51,0.00,,,0.00,Wunderground v.1.15,2013-07-10 08:58:00,
2013-07-10 03:00:00,66.0,47.3,29.79,North,360,11.0,11.0,51,0.00,,,0.00,Wunderground v.1.15,2013-07-10 09:00:00,
2013-07-10 03:01:00,66.0,47.9,29.79,NNW,330,3.0,11.0,52,0.00,,,0.00,Wunderground v.1.15,2013-07-10 09:01:00,
2013-07-10 03:03:00,66.0,47.9,29.79,NW,325,2.0,11.0,52,0.00,,,0.00,Wunderground v.1.15,2013-07-10 09:03:00,
2013-07-10 03:06:00,66.0,47.9,29.79,North,360,4.0,11.0,52,0.00,,,0.00,Wunderground v.1.15,2013-07-10 09:06:00,
2013-07-10 03:07:00,66.0,47.9,29.79,NNW,330,1.0,11.0,52,0.00,,,0.00,Wunderground v.1.15,2013-07-10 09:07:00,
2013-07-10 03:08:00,66.0,47.9,29.79,North,360,0.0,11.0,52,0.00,,,0.00,Wunderground v.1.15,2013-07-10 09:08:00,
2013-07-10 03:11:00,66.0,47.9,29.79,North,360,0.0,5.0,52,0.00,,,0.00,Wunderground v.1.15,2013-07-10 09:11:00,
2013-07-10 03:12:00,66.0,47.9,29.79,North,360,3.0,5.0,52,0.00,,,0.00,Wunderground v.1.15,2013-07-10 09:12:00,
2013-07-10 03:13:00,66.0,47.9,29.79,North,360,0.0,5.0,52,0.00,,,0.00,Wunderground v.1.15,2013-07-10 09:13:00,
2013-07-10 03:16:00,65.9,48.3,29.79,NW,323,0.0,5.0,53,0.00,,,0.00,Wunderground v.1.15,2013-07-10 09:16:00,
2013-07-10 03:17:00,65.9,48.3,29.80,NW,325,0.0,5.0,53,0.00,,,0.00,Wunderground v.1.15,2013-07-10 09:17:00,
2013-07-10 03:18:00,65.9,-99.9,29.80,NW,325,0.0,5.0,255,0.00,,,0.00,Wunderground v.1.15,2013-07-10 09:18:00,
2013-07-10 03:21:00,65.8,48.2,29.79,NW,325,0.0,1.0,53,0.00,,,0.00,Wunderground v.1.15,2013-07-10 09:21:00,
2013-07-10 03:22:00,65.8,48.2,29.79,NW,325,0.0,1.0,53,0.00,,,0.00,Wunderground v.1.15,2013-07-10 09:22:00,
2013-07-10 03:23:00,65.8,48.2,29.79,NW,325,0.0,1.0,53,0.00,,,0.00,Wunderground v.1.15,2013-07-10 09:23:00,
2013-07-10 03:26:00,65.7,48.1,29.79,NW,325,0.0,3.0,53,0.00,,,0.00,Wunderground v.1.15,2013-07-10 09:26:00,
2013-07-10 03:27:00,65.7,48.1,29.79,NW,325,3.0,3.0,53,0.00,,,0.00,Wunderground v.1.15,2013-07-10 09:27:00,
2013-07-10 03:28:00,65.6,48.0,29.79,NW,323,4.0,5.0,53,0.00,,,0.00,Wunderground v.1.15,2013-07-10 09:28:00,
2013-07-10 03:29:00,65.6,48.0,29.79,NW,323,1.0,5.0,53,0.00,,,0.00,Wunderground v.1.15,2013-07-10 09:29:00,
2013-07-10 03:31:00,65.5,47.9,29.79,NW,325,0.0,3.0,53,0.00,,,0.00,Wunderground v.1.15,2013-07-10 09:31:00,
2013-07-10 03:32:00,65.5,47.9,29.79,NW,324,0.0,3.0,53,0.00,,,0.00,Wunderground v.1.15,2013-07-10 09:32:00,
2013-07-10 03:33:00,65.4,47.8,29.79,NW,324,2.0,3.0,53,0.00,,,0.00,Wunderground v.1.15,2013-07-10 09:33:00,
2013-07-10 03:34:00,65.4,47.8,29.79,NW,324,0.0,3.0,53,0.00,,,0.00,Wunderground v.1.15,2013-07-10 09:34:00,
2013-07-10 03:36:00,65.4,47.8,29.79,NW,325,0.0,4.0,53,0.00,,,0.00,Wunderground v.1.15,2013-07-10 09:36:00,
2013-07-10 03:37:00,65.4,47.8,29.79,NW,325,0.0,4.0,53,0.00,,,0.00,Wunderground v.1.15,2013-07-10 09:37:00,
2013-07-10 03:38:00,65.3,47.7,29.79,NW,325,2.0,4.0,53,0.00,,,0.00,Wunderground v.1.15,2013-07-10 09:38:00,
2013-07-10 03:39:00,65.3,47.7,29.79,NW,325,0.0,4.0,53,0.00,,,0.00,Wunderground v.1.15,2013-07-10 09:39:00,
2013-07-10 03:41:00,65.2,48.1,29.78,NW,323,4.0,5.0,54,0.00,,,0.00,Wunderground v.1.15,2013-07-10 09:41:00,
2013-07-10 03:43:00,65.1,48.0,29.78,North,360,4.0,5.0,54,0.00,,,0.00,Wunderground v.1.15,2013-07-10 09:43:00,
2013-07-10 03:44:00,65.1,48.0,29.78,North,360,4.0,6.0,54,0.00,,,0.00,Wunderground v.1.15,2013-07-10 09:44:00,
2013-07-10 03:46:00,65.0,47.9,29.78,North,360,3.0,7.0,54,0.00,,,0.00,Wunderground v.1.15,2013-07-10 09:46:00,
2013-07-10 03:49:00,64.9,47.9,29.78,North,360,4.0,7.0,54,0.00,,,0.00,Wunderground v.1.15,2013-07-10 09:49:00,
2013-07-10 03:50:00,64.9,47.9,29.78,North,360,3.0,3.0,54,0.00,,,0.00,Wunderground v.1.15,2013-07-10 09:50:00,
2013-07-10 03:51:00,64.9,47.9,29.78,North,360,0.0,5.0,54,0.00,,,0.00,Wunderground v.1.15,2013-07-10 09:51:00,
2013-07-10 03:54:00,64.9,47.9,29.78,North,360,0.0,5.0,54,0.00,,,0.00,Wunderground v.1.15,2013-07-10 09:54:00,
2013-07-10 03:55:00,64.9,47.9,29.78,North,360,0.0,5.0,54,0.00,,,0.00,Wunderground v.1.15,2013-07-10 09:55:00,
2013-07-10 03:56:00,64.8,47.8,29.78,North,360,0.0,5.0,54,0.00,,,0.00,Wunderground v.1.15,2013-07-10 09:56:00,
2013-07-10 03:59:00,64.8,47.8,29.78,North,360,0.0,5.0,54,0.00,,,0.00,Wunderground v.1.15,2013-07-10 09:59:00,
2013-07-10 04:00:00,64.8,47.8,29.78,North,360,2.0,2.0,54,0.00,,,0.00,Wunderground v.1.15,2013-07-10 10:00:00,
2013-07-10 04:02:00,64.7,47.7,29.78,NW,320,1.0,3.0,54,0.00,,,0.00,Wunderground v.1.15,2013-07-10 10:02:00,
2013-07-10 04:04:00,64.5,47.5,29.78,North,360,0.0,3.0,54,0.00,,,0.00,Wunderground v.1.15,2013-07-10 10:04:00,
2013-07-10 04:05:00,64.4,47.9,29.78,North,360,0.0,3.0,55,0.00,,,0.00,Wunderground v.1.15,2013-07-10 10:05:00,
2013-07-10 04:07:00,64.0,47.5,29.78,North,360,0.0,3.0,55,0.00,,,0.00,Wunderground v.1.15,2013-07-10 10:07:00,
2013-07-10 04:09:00,63.9,47.4,29.78,North,360,3.0,3.0,55,0.00,,,0.00,Wunderground v.1.15,2013-07-10 10:09:00,
2013-07-10 04:10:00,63.8,47.3,29.78,North,360,2.0,3.0,55,0.00,,,0.00,Wunderground v.1.15,2013-07-10 10:10:00,
2013-07-10 04:12:00,63.7,46.7,29.77,North,360,0.0,3.0,54,0.00,,,0.00,Wunderground v.1.15,2013-07-10 10:12:00,
2013-07-10 04:14:00,63.6,46.6,29.77,North,360,1.0,3.0,54,0.00,,,0.00,Wunderground v.1.15,2013-07-10 10:14:00,
2013-07-10 04:15:00,63.6,46.6,29.77,North,360,3.0,3.0,54,0.00,,,0.00,Wunderground v.1.15,2013-07-10 10:15:00,
2013-07-10 04:17:00,63.5,46.6,29.77,NW,319,0.0,3.0,54,0.00,,,0.00,Wunderground v.1.15,2013-07-10 10:17:00,
2013-07-10 04:20:00,63.5,46.6,29.77,North,360,0.0,1.0,54,0.00,,,0.00,Wunderground v.1.15,2013-07-10 10:20:00,
2013-07-10 04:22:00,63.4,46.5,29.77,NW,319,0.0,4.0,54,0.00,,,0.00,Wunderground v.1.15,2013-07-10 10:22:00,
2013-07-10 04:25:00,63.4,46.5,29.77,North,360,0.0,4.0,54,0.00,,,0.00,Wunderground v.1.15,2013-07-10 10:25:00,
2013-07-10 04:26:00,63.4,46.5,29.77,North,360,0.0,4.0,54,0.00,,,0.00,Wunderground v.1.15,2013-07-10 10:26:00,
2013-07-10 04:28:00,63.4,46.0,29.77,North,360,0.0,4.0,53,0.00,,,0.00,Wunderground v.1.15,2013-07-10 10:28:00,
2013-07-10 04:30:00,63.4,46.9,29.77,North,360,0.0,0.0,55,0.00,,,0.00,Wunderground v.1.15,2013-07-10 10:30:00,
2013-07-10 04:31:00,63.4,46.9,29.77,North,360,0.0,0.0,55,0.00,,,0.00,Wunderground v.1.15,2013-07-10 10:31:00,
2013-07-10 04:33:00,63.3,46.4,29.77,North,360,0.0,3.0,54,0.00,,,0.00,Wunderground v.1.15,2013-07-10 10:33:00,
2013-07-10 04:35:00,63.2,45.3,29.77,North,360,0.0,3.0,52,0.00,,,0.00,Wunderground v.1.15,2013-07-10 10:35:00,
2013-07-10 04:36:00,63.2,45.3,29.77,North,360,0.0,3.0,52,0.00,,,0.00,Wunderground v.1.15,2013-07-10 10:36:00,
2013-07-10 04:38:00,63.1,45.2,29.77,North,360,0.0,3.0,52,0.00,,,0.00,Wunderground v.1.15,2013-07-10 10:38:00,
2013-07-10 04:40:00,63.1,45.2,29.77,NW,325,0.0,1.0,52,0.00,,,0.00,Wunderground v.1.15,2013-07-10 10:40:00,
2013-07-10 04:41:00,63.1,45.7,29.77,NW,325,0.0,1.0,53,0.00,,,0.00,Wunderground v.1.15,2013-07-10 10:41:00,
2013-07-10 04:42:00,63.0,45.6,29.77,NW,325,0.0,1.0,53,0.00,,,0.00,Wunderground v.1.15,2013-07-10 10:42:00,
2013-07-10 04:43:00,63.0,45.6,29.77,NW,325,0.0,1.0,53,0.00,,,0.00,Wunderground v.1.15,2013-07-10 10:43:00,
2013-07-10 04:45:00,63.0,46.1,29.77,NW,325,0.0,1.0,54,0.00,,,0.00,Wunderground v.1.15,2013-07-10 10:45:00,
2013-07-10 04:46:00,63.0,46.1,29.77,NW,325,0.0,1.0,54,0.00,,,0.00,Wunderground v.1.15,2013-07-10 10:46:00,
2013-07-10 04:47:00,63.0,46.1,29.77,NW,325,0.0,1.0,54,0.00,,,0.00,Wunderground v.1.15,2013-07-10 10:47:00,
2013-07-10 04:48:00,63.0,46.1,29.77,NW,325,1.0,1.0,54,0.00,,,0.00,Wunderground v.1.15,2013-07-10 10:48:00,
2013-07-10 04:50:00,62.9,46.0,29.77,NW,325,0.0,0.0,54,0.00,,,0.00,Wunderground v.1.15,2013-07-10 10:50:00,
2013-07-10 04:51:00,62.9,46.0,29.76,NW,325,0.0,0.0,54,0.00,,,0.00,Wunderground v.1.15,2013-07-10 10:51:00,
2013-07-10 04:52:00,62.8,45.4,29.76,NW,325,0.0,0.0,53,0.00,,,0.00,Wunderground v.1.15,2013-07-10 10:52:00,
2013-07-10 04:53:00,62.8,45.4,29.77,NW,325,0.0,0.0,53,0.00,,,0.00,Wunderground v.1.15,2013-07-10 10:53:00,
2013-07-10 04:55:00,62.7,45.3,29.76,NW,325,0.0,1.0,53,0.00,,,0.00,Wunderground v.1.15,2013-07-10 10:55:00,
2013-07-10 04:56:00,62.6,44.2,29.77,NW,325,0.0,1.0,51,0.00,,,0.00,Wunderground v.1.15,2013-07-10 10:56:00,
2013-07-10 04:57:00,62.6,44.2,29.77,NW,325,0.0,1.0,51,0.00,,,0.00,Wunderground v.1.15,2013-07-10 10:57:00,
2013-07-10 04:58:00,62.5,44.1,29.76,NW,325,0.0,1.0,51,0.00,,,0.00,Wunderground v.1.15,2013-07-10 10:58:00,
2013-07-10 05:01:00,62.3,43.9,29.77,WSW,254,2.0,5.0,51,0.00,,,0.00,Wunderground v.1.15,2013-07-10 11:01:00,
2013-07-10 05:02:00,62.3,43.9,29.77,WSW,256,0.0,5.0,51,0.00,,,0.00,Wunderground v.1.15,2013-07-10 11:02:00,
2013-07-10 05:03:00,62.2,43.8,29.77,North,360,3.0,5.0,51,0.00,,,0.00,Wunderground v.1.15,2013-07-10 11:03:00,
2013-07-10 05:06:00,62.2,43.8,29.77,WSW,256,0.0,5.0,51,0.00,,,0.00,Wunderground v.1.15,2013-07-10 11:06:00,
2013-07-10 05:07:00,62.2,43.8,29.77,WSW,256,0.0,5.0,51,0.00,,,0.00,Wunderground v.1.15,2013-07-10 11:07:00,
2013-07-10 05:09:00,62.2,43.8,29.76,North,360,5.0,5.0,51,0.00,,,0.00,Wunderground v.1.15,2013-07-10 11:09:00,
2013-07-10 05:12:00,62.2,43.3,29.76,North,360,2.0,3.0,50,0.00,,,0.00,Wunderground v.1.15,2013-07-10 11:12:00,
2013-07-10 05:13:00,62.2,43.3,29.76,North,360,2.0,3.0,50,0.00,,,0.00,Wunderground v.1.15,2013-07-10 11:13:00,
2013-07-10 05:14:00,62.2,43.3,29.76,North,360,3.0,3.0,50,0.00,,,0.00,Wunderground v.1.15,2013-07-10 11:14:00,
2013-07-10 05:17:00,62.3,43.4,29.76,North,360,4.0,4.0,50,0.00,,,0.00,Wunderground v.1.15,2013-07-10 11:17:00,
2013-07-10 05:18:00,62.3,43.4,29.76,SSE,162,7.0,8.0,50,0.00,,,0.00,Wunderground v.1.15,2013-07-10 11:18:00,
2013-07-10 05:19:00,62.3,43.4,29.76,SSE,157,5.0,8.0,50,0.00,,,0.00,Wunderground v.1.15,2013-07-10 11:19:00,
2013-07-10 05:22:00,62.6,43.2,29.76,SSE,150,3.0,7.0,49,0.00,,,0.00,Wunderground v.1.15,2013-07-10 11:22:00,
2013-07-10 05:23:00,62.8,43.3,29.76,SSE,149,0.0,7.0,49,0.00,,,0.00,Wunderground v.1.15,2013-07-10 11:23:00,
2013-07-10 05:24:00,62.8,43.3,29.76,SSE,148,2.0,7.0,49,0.00,,,0.00,Wunderground v.1.15,2013-07-10 11:24:00,
2013-07-10 05:27:00,63.1,43.6,29.77,SSE,147,2.0,7.0,49,0.00,,,0.00,Wunderground v.1.15,2013-07-10 11:27:00,
2013-07-10 05:28:00,63.1,43.1,29.77,SSE,148,1.0,7.0,48,0.00,,,0.00,Wunderground v.1.15,2013-07-10 11:28:00,
2013-07-10 05:29:00,63.2,43.2,29.77,SE,146,1.0,7.0,48,0.00,,,0.00,Wunderground v.1.15,2013-07-10 11:29:00,
2013-07-10 05:32:00,63.3,43.3,29.77,SE,144,4.0,5.0,48,0.00,,,0.00,Wunderground v.1.15,2013-07-10 11:32:00,
2013-07-10 05:33:00,63.3,43.3,29.77,North,360,4.0,5.0,48,0.00,,,0.00,Wunderground v.1.15,2013-07-10 11:33:00,
2013-07-10 05:34:00,63.4,43.4,29.77,North,360,3.0,5.0,48,0.00,,,0.00,Wunderground v.1.15,2013-07-10 11:34:00,
2013-07-10 05:35:00,63.4,43.4,29.77,SE,142,2.0,5.0,48,0.00,,,0.00,Wunderground v.1.15,2013-07-10 11:35:00,
2013-07-10 05:37:00,63.6,43.5,29.77,SE,142,5.0,6.0,48,0.00,,,0.00,Wunderground v.1.15,2013-07-10 11:37:00,
2013-07-10 05:38:00,63.6,43.5,29.77,North,360,1.0,6.0,48,0.00,,,0.00,Wunderground v.1.15,2013-07-10 11:38:00,
2013-07-10 05:39:00,63.6,43.5,29.77,SE,140,6.0,7.0,48,0.00,,,0.00,Wunderground v.1.15,2013-07-10 11:39:00,
2013-07-10 05:40:00,63.6,43.5,29.77,SE,140,3.0,4.0,48,0.00,,,0.00,Wunderground v.1.15,2013-07-10 11:40:00,
2013-07-10 05:42:00,63.6,43.5,29.77,SE,139,4.0,6.0,48,0.00,,,0.00,Wunderground v.1.15,2013-07-10 11:42:00,
2013-07-10 05:43:00,63.6,43.5,29.77,SE,139,2.0,6.0,48,0.00,,,0.00,Wunderground v.1.15,2013-07-10 11:43:00,
2013-07-10 05:44:00,63.6,43.5,29.77,SE,138,2.0,6.0,48,0.00,,,0.00,Wunderground v.1.15,2013-07-10 11:44:00,
2013-07-10 05:45:00,63.5,43.4,29.77,SE,138,1.0,6.0,48,0.00,,,0.00,Wunderground v.1.15,2013-07-10 11:45:00,
2013-07-10 05:48:00,63.5,43.4,29.77,SE,138,0.0,6.0,48,0.00,,,0.00,Wunderground v.1.15,2013-07-10 11:48:00,
2013-07-10 05:49:00,63.4,43.4,29.77,SE,138,0.0,6.0,48,0.00,,,0.00,Wunderground v.1.15,2013-07-10 11:49:00,
2013-07-10 05:50:00,63.4,43.9,29.78,SE,138,0.0,2.0,49,0.00,,,0.00,Wunderground v.1.15,2013-07-10 11:50:00,
2013-07-10 05:51:00,63.3,43.8,29.78,SE,138,0.0,2.0,49,0.00,,,0.00,Wunderground v.1.15,2013-07-10 11:51:00,
2013-07-10 05:53:00,63.2,43.7,29.78,SE,138,0.0,2.0,49,0.00,,,0.00,Wunderground v.1.15,2013-07-10 11:53:00,
2013-07-10 05:54:00,63.2,43.7,29.78,SE,138,0.0,2.0,49,0.00,,,0.00,Wunderground v.1.15,2013-07-10 11:54:00,
2013-07-10 05:55:00,63.2,43.7,29.78,SE,138,0.0,2.0,49,0.00,,,0.00,Wunderground v.1.15,2013-07-10 11:55:00,
2013-07-10 05:56:00,63.2,43.7,29.78,SE,138,0.0,2.0,49,0.00,,,0.00,Wunderground v.1.15,2013-07-10 11:56:00,
2013-07-10 05:58:00,63.1,43.6,29.78,SE,138,0.0,2.0,49,0.00,,,0.00,Wunderground v.1.15,2013-07-10 11:58:00,
2013-07-10 05:59:00,63.0,43.5,29.77,SE,138,0.0,2.0,49,0.00,,,0.00,Wunderground v.1.15,2013-07-10 11:59:00,
2013-07-10 06:00:00,63.0,43.5,29.77,SE,138,0.0,1.0,49,0.00,,,0.00,Wunderground v.1.15,2013-07-10 12:00:00,
2013-07-10 06:01:00,63.0,43.5,29.77,SE,138,3.0,3.0,49,0.00,,,0.00,Wunderground v.1.15,2013-07-10 12:01:00,
2013-07-10 06:02:00,62.9,43.4,29.77,SE,138,2.0,5.0,49,0.00,,,0.00,Wunderground v.1.15,2013-07-10 12:02:00,
2013-07-10 06:03:00,62.9,43.4,29.78,SE,138,2.0,5.0,49,0.00,,,0.00,Wunderground v.1.15,2013-07-10 12:03:00,
2013-07-10 06:05:00,63.0,43.5,29.77,SE,138,0.0,5.0,49,0.00,,,0.00,Wunderground v.1.15,2013-07-10 12:05:00,
2013-07-10 06:06:00,63.0,43.5,29.77,SE,138,0.0,5.0,49,0.00,,,0.00,Wunderground v.1.15,2013-07-10 12:06:00,
2013-07-10 06:07:00,63.1,43.6,29.78,SE,138,2.0,5.0,49,0.00,,,0.00,Wunderground v.1.15,2013-07-10 12:07:00,
2013-07-10 06:08:00,63.1,43.6,29.78,SE,138,0.0,5.0,49,0.00,,,0.00,Wunderground v.1.15,2013-07-10 12:08:00,
2013-07-10 06:10:00,63.2,43.7,29.78,SE,138,0.0,3.0,49,0.00,,,0.00,Wunderground v.1.15,2013-07-10 12:10:00,
2013-07-10 06:11:00,63.2,43.7,29.78,SE,138,0.0,3.0,49,0.00,,,0.00,Wunderground v.1.15,2013-07-10 12:11:00,
2013-07-10 06:12:00,63.2,44.2,29.77,SE,138,0.0,3.0,50,0.00,,,0.00,Wunderground v.1.15,2013-07-10 12:12:00,
2013-07-10 06:13:00,63.2,44.2,29.77,SE,138,0.0,3.0,50,0.00,,,0.00,Wunderground v.1.15,2013-07-10 12:13:00,
2013-07-10 06:15:00,63.2,44.2,29.77,SE,138,0.0,3.0,50,0.00,,,0.00,Wunderground v.1.15,2013-07-10 12:15:00,
2013-07-10 06:16:00,63.2,43.7,29.77,SE,138,0.0,3.0,49,0.00,,,0.00,Wunderground v.1.15,2013-07-10 12:16:00,
2013-07-10 06:17:00,63.3,43.8,29.77,SE,138,0.0,3.0,49,0.00,,,0.00,Wunderground v.1.15,2013-07-10 12:17:00,
2013-07-10 06:18:00,63.3,43.8,29.77,SE,138,0.0,3.0,49,0.00,,,0.00,Wunderground v.1.15,2013-07-10 12:18:00,
2013-07-10 06:19:00,63.3,43.8,29.77,SE,138,0.0,3.0,49,0.00,,,0.00,Wunderground v.1.15,2013-07-10 12:19:00,
2013-07-10 06:21:00,63.4,44.4,29.77,SE,138,0.0,0.0,50,0.00,,,0.00,Wunderground v.1.15,2013-07-10 12:21:00,
2013-07-10 06:22:00,63.4,44.4,29.77,SE,138,0.0,0.0,50,0.00,,,0.00,Wunderground v.1.15,2013-07-10 12:22:00,
2013-07-10 06:23:00,63.5,44.5,29.78,SE,138,0.0,0.0,50,0.00,,,0.00,Wunderground v.1.15,2013-07-10 12:23:00,
2013-07-10 06:24:00,63.5,45.0,29.78,SE,138,1.0,1.0,51,0.00,,,0.00,Wunderground v.1.15,2013-07-10 12:24:00,
2013-07-10 06:27:00,63.6,44.1,29.77,SE,138,0.0,3.0,49,0.00,,,0.00,Wunderground v.1.15,2013-07-10 12:27:00,
2013-07-10 06:28:00,63.7,44.2,29.77,SE,138,0.0,3.0,49,0.00,,,0.00,Wunderground v.1.15,2013-07-10 12:28:00,
2013-07-10 06:29:00,63.7,44.2,29.77,SE,138,0.0,3.0,49,0.00,,,0.00,Wunderground v.1.15,2013-07-10 12:29:00,
2013-07-10 06:32:00,63.9,44.4,29.77,SE,138,0.0,3.0,49,0.00,,,0.00,Wunderground v.1.15,2013-07-10 12:32:00,
2013-07-10 06:33:00,64.0,44.4,29.77,SE,138,0.0,3.0,49,0.00,,,0.00,Wunderground v.1.15,2013-07-10 12:33:00,
2013-07-10 06:34:00,64.0,44.4,29.77,SE,138,0.0,3.0,49,0.00,,,0.00,Wunderground v.1.15,2013-07-10 12:34:00,
2013-07-10 06:37:00,64.2,44.6,29.77,SE,138,2.0,3.0,49,0.00,,,0.00,Wunderground v.1.15,2013-07-10 12:37:00,
2013-07-10 06:38:00,64.3,44.7,29.77,SE,138,0.0,3.0,49,0.00,,,0.00,Wunderground v.1.15,2013-07-10 12:38:00,
2013-07-10 06:39:00,64.4,44.8,29.77,SE,138,0.0,3.0,49,0.00,,,0.00,Wunderground v.1.15,2013-07-10 12:39:00,
2013-07-10 06:40:00,64.4,44.8,29.77,SE,138,0.0,0.0,49,0.00,,,0.00,Wunderground v.1.15,2013-07-10 12:40:00,
2013-07-10 06:42:00,64.6,44.5,29.77,SE,138,0.0,0.0,48,0.00,,,0.00,Wunderground v.1.15,2013-07-10 12:42:00,
2013-07-10 06:43:00,64.7,45.1,29.77,SE,138,1.0,1.0,49,0.00,,,0.00,Wunderground v.1.15,2013-07-10 12:43:00,
2013-07-10 06:44:00,64.7,44.5,29.77,SE,138,0.0,2.0,48,0.00,,,0.00,Wunderground v.1.15,2013-07-10 12:44:00,
2013-07-10 06:45:00,64.7,44.5,29.77,SE,138,0.0,2.0,48,0.00,,,0.00,Wunderground v.1.15,2013-07-10 12:45:00,
2013-07-10 06:47:00,64.9,44.7,29.77,SE,138,0.0,2.0,48,0.00,,,0.00,Wunderground v.1.15,2013-07-10 12:47:00,
2013-07-10 06:48:00,65.0,44.8,29.77,SE,138,0.0,2.0,48,0.00,,,0.00,Wunderground v.1.15,2013-07-10 12:48:00,
2013-07-10 06:49:00,65.1,45.5,29.77,SE,138,0.0,2.0,49,0.00,,,0.00,Wunderground v.1.15,2013-07-10 12:49:00,
2013-07-10 06:50:00,65.1,44.9,29.77,SE,138,0.0,0.0,48,0.00,,,0.00,Wunderground v.1.15,2013-07-10 12:50:00,
2013-07-10 06:52:00,65.2,45.5,29.77,SE,138,0.0,0.0,49,0.00,,,0.00,Wunderground v.1.15,2013-07-10 12:52:00,
2013-07-10 06:53:00,65.3,45.6,29.78,SE,138,0.0,0.0,49,0.00,,,0.00,Wunderground v.1.15,2013-07-10 12:53:00,
2013-07-10 06:54:00,65.3,45.6,29.78,SE,138,0.0,0.0,49,0.00,,,0.00,Wunderground v.1.15,2013-07-10 12:54:00,
2013-07-10 06:55:00,65.4,45.2,29.78,SE,138,0.0,0.0,48,0.00,,,0.00,Wunderground v.1.15,2013-07-10 12:55:00,
2013-07-10 06:57:00,65.5,45.8,29.78,SE,138,0.0,0.0,49,0.00,,,0.00,Wunderground v.1.15,2013-07-10 12:57:00,
2013-07-10 06:59:00,65.5,45.3,29.77,SE,138,0.0,0.0,48,0.00,,,0.00,Wunderground v.1.15,2013-07-10 12:59:00,
2013-07-10 07:00:00,65.6,45.4,29.77,SE,138,0.0,0.0,48,0.00,,,0.00,Wunderground v.1.15,2013-07-10 13:00:00,
2013-07-10 07:03:00,65.8,45.0,29.77,SE,138,0.0,0.0,47,0.00,,,0.00,Wunderground v.1.15,2013-07-10 13:03:00,
2013-07-10 07:04:00,65.8,45.0,29.77,SE,138,0.0,0.0,47,0.00,,,0.00,Wunderground v.1.15,2013-07-10 13:04:00,
2013-07-10 07:05:00,65.9,44.5,29.77,SE,138,0.0,0.0,46,0.00,,,0.00,Wunderground v.1.15,2013-07-10 13:05:00,
2013-07-10 07:06:00,65.9,44.5,29.77,SE,138,0.0,0.0,46,0.00,,,0.00,Wunderground v.1.15,2013-07-10 13:06:00,
2013-07-10 07:08:00,66.1,44.7,29.77,SE,138,0.0,0.0,46,0.00,,,0.00,Wunderground v.1.15,2013-07-10 13:08:00,
2013-07-10 07:09:00,66.2,44.8,29.77,SE,138,0.0,0.0,46,0.00,,,0.00,Wunderground v.1.15,2013-07-10 13:09:00,
2013-07-10 07:10:00,66.2,44.8,29.77,SE,138,0.0,0.0,46,0.00,,,0.00,Wunderground v.1.15,2013-07-10 13:10:00,
2013-07-10 07:11:00,66.3,44.9,29.77,SE,138,0.0,0.0,46,0.00,,,0.00,Wunderground v.1.15,2013-07-10 13:11:00,
2013-07-10 07:13:00,66.4,45.0,29.77,SE,138,0.0,0.0,46,0.00,,,0.00,Wunderground v.1.15,2013-07-10 13:13:00,
2013-07-10 07:15:00,66.5,45.1,29.77,SE,138,1.0,1.0,46,0.00,,,0.00,Wunderground v.1.15,2013-07-10 13:15:00,
2013-07-10 07:16:00,66.7,44.7,29.77,SE,138,1.0,2.0,45,0.00,,,0.00,Wunderground v.1.15,2013-07-10 13:16:00,
2013-07-10 07:18:00,66.9,45.4,29.77,SE,138,0.0,2.0,46,0.00,,,0.00,Wunderground v.1.15,2013-07-10 13:18:00,
2013-07-10 07:20:00,67.0,45.5,29.77,SE,138,3.0,3.0,46,0.00,,,0.00,Wunderground v.1.15,2013-07-10 13:20:00,
2013-07-10 07:21:00,67.2,45.7,29.76,SE,138,3.0,4.0,46,0.00,,,0.00,Wunderground v.1.15,2013-07-10 13:21:00,
2013-07-10 07:23:00,67.3,45.8,29.77,SE,138,3.0,4.0,46,0.00,,,0.00,Wunderground v.1.15,2013-07-10 13:23:00,
2013-07-10 07:25:00,67.5,45.4,29.77,SE,138,0.0,4.0,45,0.00,,,0.00,Wunderground v.1.15,2013-07-10 13:25:00,
2013-07-10 07:28:00,67.8,45.7,29.77,North,360,0.0,6.0,45,0.00,,,0.00,Wunderground v.1.15,2013-07-10 13:28:00,
2013-07-10 07:30:00,68.0,46.4,29.77,North,360,3.0,3.0,46,0.00,,,0.00,Wunderground v.1.15,2013-07-10 13:30:00,
2013-07-10 07:31:00,68.1,46.5,29.77,SE,138,3.0,3.0,46,0.00,,,0.00,Wunderground v.1.15,2013-07-10 13:31:00,
2013-07-10 07:33:00,68.4,46.8,29.77,SE,138,0.0,3.0,46,0.00,,,0.00,Wunderground v.1.15,2013-07-10 13:33:00,
2013-07-10 07:34:00,68.4,46.8,29.77,SE,137,0.0,3.0,46,0.00,,,0.00,Wunderground v.1.15,2013-07-10 13:34:00,
2013-07-10 07:36:00,68.7,46.5,29.77,North,360,1.0,4.0,45,0.00,,,0.00,Wunderground v.1.15,2013-07-10 13:36:00,
2013-07-10 07:38:00,69.1,46.3,29.77,ESE,123,4.0,8.0,44,0.00,,,0.00,Wunderground v.1.15,2013-07-10 13:38:00,
2013-07-10 07:39:00,69.2,46.4,29.77,ESE,122,5.0,8.0,44,0.00,,,0.00,Wunderground v.1.15,2013-07-10 13:39:00,
2013-07-10 07:41:00,69.5,46.0,29.77,ESE,119,4.0,7.0,43,0.00,,,0.00,Wunderground v.1.15,2013-07-10 13:41:00,
2013-07-10 07:44:00,69.9,47.0,29.77,North,360,2.0,7.0,44,0.00,,,0.00,Wunderground v.1.15,2013-07-10 13:44:00,
2013-07-10 07:46:00,70.2,46.6,29.77,ENE,67,2.0,8.0,43,0.00,,,0.00,Wunderground v.1.15,2013-07-10 13:46:00,
2013-07-10 07:47:00,70.3,46.7,29.77,North,360,0.0,8.0,43,0.00,,,0.00,Wunderground v.1.15,2013-07-10 13:47:00,
2013-07-10 07:49:00,70.5,46.3,29.77,North,360,0.0,8.0,42,0.00,,,0.00,Wunderground v.1.15,2013-07-10 13:49:00,
2013-07-10 07:51:00,70.6,46.4,29.77,ENE,67,0.0,5.0,42,0.00,,,0.00,Wunderground v.1.15,2013-07-10 13:51:00,
2013-07-10 07:52:00,70.7,46.5,29.77,ENE,67,0.0,5.0,42,0.00,,,0.00,Wunderground v.1.15,2013-07-10 13:52:00,
2013-07-10 07:54:00,70.8,45.9,29.77,ENE,67,0.0,5.0,41,0.00,,,0.00,Wunderground v.1.15,2013-07-10 13:54:00,
2013-07-10 07:57:00,70.9,46.0,29.77,North,360,0.0,5.0,41,0.00,,,0.00,Wunderground v.1.15,2013-07-10 13:57:00,
2013-07-10 07:59:00,71.0,47.4,29.77,ENE,66,2.0,5.0,43,0.00,,,0.00,Wunderground v.1.15,2013-07-10 13:59:00,
2013-07-10 08:01:00,71.0,48.0,29.77,ENE,69,0.0,2.0,44,0.00,,,0.00,Wunderground v.1.15,2013-07-10 14:01:00,
2013-07-10 08:02:00,71.0,48.0,29.77,ENE,65,0.0,3.0,44,0.00,,,0.00,Wunderground v.1.15,2013-07-10 14:02:00,
2013-07-10 08:04:00,71.1,48.1,29.77,ENE,65,1.0,3.0,44,0.00,,,0.00,Wunderground v.1.15,2013-07-10 14:04:00,
2013-07-10 08:06:00,71.1,48.1,29.77,ENE,64,0.0,3.0,44,0.00,,,0.00,Wunderground v.1.15,2013-07-10 14:06:00,
2013-07-10 08:07:00,71.2,48.2,29.77,ENE,65,0.0,3.0,44,0.00,,,0.00,Wunderground v.1.15,2013-07-10 14:07:00,
2013-07-10 08:09:00,71.3,47.6,29.77,North,360,0.0,1.0,43,0.00,,,0.00,Wunderground v.1.15,2013-07-10 14:09:00,
2013-07-10 08:11:00,71.4,48.3,29.77,ENE,65,1.0,1.0,44,0.00,,,0.00,Wunderground v.1.15,2013-07-10 14:11:00,
2013-07-10 08:12:00,71.4,47.7,29.77,ENE,67,1.0,1.0,43,0.00,,,0.00,Wunderground v.1.15,2013-07-10 14:12:00,
2013-07-10 08:13:00,71.5,47.8,29.77,ENE,67,0.0,1.0,43,0.00,,,0.00,Wunderground v.1.15,2013-07-10 14:13:00,
2013-07-10 08:14:00,71.6,47.9,29.77,ENE,67,0.0,1.0,43,0.00,,,0.00,Wunderground v.1.15,2013-07-10 14:14:00,
2013-07-10 08:16:00,71.8,48.1,29.77,ENE,67,0.0,1.0,43,0.00,,,0.00,Wunderground v.1.15,2013-07-10 14:16:00,
2013-07-10 08:17:00,71.9,47.6,29.77,ENE,64,0.0,1.0,42,0.00,,,0.00,Wunderground v.1.15,2013-07-10 14:17:00,
2013-07-10 08:18:00,72.0,47.6,29.77,ENE,64,0.0,5.0,42,0.00,,,0.00,Wunderground v.1.15,2013-07-10 14:18:00,
2013-07-10 08:19:00,72.0,47.6,29.77,ENE,65,1.0,5.0,42,0.00,,,0.00,Wunderground v.1.15,2013-07-10 14:19:00,
2013-07-10 08:20:00,72.1,47.7,29.77,North,360,2.0,3.0,42,0.00,,,0.00,Wunderground v.1.15,2013-07-10 14:20:00,
2013-07-10 08:21:00,72.3,47.3,29.77,ENE,66,0.0,3.0,41,0.00,,,0.00,Wunderground v.1.15,2013-07-10 14:21:00,
2013-07-10 08:24:00,72.5,47.5,29.77,ENE,65,0.0,4.0,41,0.00,,,0.00,Wunderground v.1.15,2013-07-10 14:24:00,
2013-07-10 08:25:00,72.7,47.6,29.77,ENE,64,0.0,4.0,41,0.00,,,0.00,Wunderground v.1.15,2013-07-10 14:25:00,
2013-07-10 08:27:00,72.9,47.2,29.77,ENE,64,3.0,4.0,40,0.00,,,0.00,Wunderground v.1.15,2013-07-10 14:27:00,
2013-07-10 08:29:00,73.1,46.7,29.78,ENE,65,3.0,5.0,39,0.00,,,0.00,Wunderground v.1.15,2013-07-10 14:29:00,
2013-07-10 08:30:00,73.2,46.8,29.77,ENE,63,0.0,1.0,39,0.00,,,0.00,Wunderground v.1.15,2013-07-10 14:30:00,
2013-07-10 08:31:00,73.4,46.9,29.77,ENE,67,4.0,4.0,39,0.00,,,0.00,Wunderground v.1.15,2013-07-10 14:31:00,
2013-07-10 08:32:00,73.4,46.2,29.78,ENE,63,3.0,5.0,38,0.00,,,0.00,Wunderground v.1.15,2013-07-10 14:32:00,
2013-07-10 08:34:00,73.7,47.2,29.77,ENE,61,0.0,5.0,39,0.00,,,0.00,Wunderground v.1.15,2013-07-10 14:34:00,
2013-07-10 08:35:00,73.8,47.3,29.77,ENE,63,0.0,5.0,39,0.00,,,0.00,Wunderground v.1.15,2013-07-10 14:35:00,
2013-07-10 08:36:00,73.9,47.4,29.77,ENE,62,0.0,5.0,39,0.00,,,0.00,Wunderground v.1.15,2013-07-10 14:36:00,
2013-07-10 08:37:00,74.0,47.5,29.77,ENE,61,0.0,5.0,39,0.00,,,0.00,Wunderground v.1.15,2013-07-10 14:37:00,
2013-07-10 08:39:00,74.2,47.6,29.77,North,360,3.0,5.0,39,0.00,,,0.00,Wunderground v.1.15,2013-07-10 14:39:00,
2013-07-10 08:41:00,74.4,47.1,29.77,North,360,0.0,3.0,38,0.00,,,0.00,Wunderground v.1.15,2013-07-10 14:41:00,
2013-07-10 08:42:00,74.5,47.9,29.77,ENE,61,2.0,3.0,39,0.00,,,0.00,Wunderground v.1.15,2013-07-10 14:42:00,
2013-07-10 08:44:00,74.5,47.2,29.77,ENE,61,0.0,3.0,38,0.00,,,0.00,Wunderground v.1.15,2013-07-10 14:44:00,
2013-07-10 08:45:00,74.6,48.0,29.77,ENE,63,0.0,3.0,39,0.00,,,0.00,Wunderground v.1.15,2013-07-10 14:45:00,
2013-07-10 08:46:00,74.7,48.1,29.77,North,360,1.0,3.0,39,0.00,,,0.00,Wunderground v.1.15,2013-07-10 14:46:00,
2013-07-10 08:47:00,74.7,47.4,29.77,ENE,59,5.0,7.0,38,0.00,,,0.00,Wunderground v.1.15,2013-07-10 14:47:00,
2013-07-10 08:50:00,74.7,47.4,29.77,ENE,62,4.0,4.0,38,0.00,,,0.00,Wunderground v.1.15,2013-07-10 14:50:00,
2013-07-10 08:51:00,74.7,47.4,29.78,ENE,60,3.0,5.0,38,0.00,,,0.00,Wunderground v.1.15,2013-07-10 14:51:00,
2013-07-10 08:52:00,74.8,47.5,29.78,North,360,2.0,5.0,38,0.00,,,0.00,Wunderground v.1.15,2013-07-10 14:52:00,
2013-07-10 08:55:00,75.0,48.4,29.78,North,360,4.0,5.0,39,0.00,,,0.00,Wunderground v.1.15,2013-07-10 14:55:00,
2013-07-10 08:56:00,75.0,47.7,29.78,NNE,30,2.0,6.0,38,0.00,,,0.00,Wunderground v.1.15,2013-07-10 14:56:00,
2013-07-10 08:57:00,75.0,47.7,29.78,NNE,32,8.0,8.0,38,0.00,,,0.00,Wunderground v.1.15,2013-07-10 14:57:00,
2013-07-10 08:58:00,75.0,47.7,29.78,North,360,7.0,9.0,38,0.00,,,0.00,Wunderground v.1.15,2013-07-10 14:58:00,
2013-07-10 09:00:00,74.9,47.6,29.78,North,360,0.0,2.0,38,0.00,,,0.00,Wunderground v.1.15,2013-07-10 15:00:00,
2013-07-10 09:01:00,74.9,47.6,29.78,North,360,2.0,3.0,38,0.00,,,0.00,Wunderground v.1.15,2013-07-10 15:01:00,
2013-07-10 09:02:00,74.8,47.5,29.78,NNE,29,0.0,3.0,38,0.00,,,0.00,Wunderground v.1.15,2013-07-10 15:02:00,
2013-07-10 09:03:00,74.8,47.5,29.78,North,360,0.0,3.0,38,0.00,,,0.00,Wunderground v.1.15,2013-07-10 15:03:00,
2013-07-10 09:05:00,74.8,47.5,29.78,North,360,0.0,3.0,38,0.00,,,0.00,Wunderground v.1.15,2013-07-10 15:05:00,
2013-07-10 09:06:00,74.8,47.5,29.78,North,360,2.0,3.0,38,0.00,,,0.00,Wunderground v.1.15,2013-07-10 15:06:00,
2013-07-10 09:07:00,74.8,47.5,29.78,North,360,0.0,3.0,38,0.00,,,0.00,Wunderground v.1.15,2013-07-10 15:07:00,
2013-07-10 09:08:00,74.8,48.2,29.78,North,360,0.0,3.0,39,0.00,,,0.00,Wunderground v.1.15,2013-07-10 15:08:00,
2013-07-10 09:10:00,74.8,48.9,29.78,North,360,1.0,2.0,40,0.00,,,0.00,Wunderground v.1.15,2013-07-10 15:10:00,
2013-07-10 09:11:00,74.8,48.9,29.78,NNE,25,1.0,2.0,40,0.00,,,0.00,Wunderground v.1.15,2013-07-10 15:11:00,
2013-07-10 09:12:00,74.9,48.3,29.78,NNE,25,0.0,3.0,39,0.00,,,0.00,Wunderground v.1.15,2013-07-10 15:12:00,
2013-07-10 09:13:00,74.9,48.3,29.78,North,360,2.0,3.0,39,0.00,,,0.00,Wunderground v.1.15,2013-07-10 15:13:00,
2013-07-10 09:16:00,75.3,50.0,29.78,North,360,0.0,6.0,41,0.00,,,0.00,Wunderground v.1.15,2013-07-10 15:16:00,
2013-07-10 09:17:00,75.4,50.1,29.78,NNE,32,2.0,6.0,41,0.00,,,0.00,Wunderground v.1.15,2013-07-10 15:17:00,
2013-07-10 09:18:00,75.5,50.1,29.78,North,360,0.0,6.0,41,0.00,,,0.00,Wunderground v.1.15,2013-07-10 15:18:00,
2013-07-10 09:19:00,75.5,50.1,29.78,North,360,2.0,6.0,41,0.00,,,0.00,Wunderground v.1.15,2013-07-10 15:19:00,
2013-07-10 09:21:00,75.7,50.3,29.78,North,360,4.0,8.0,41,0.00,,,0.00,Wunderground v.1.15,2013-07-10 15:21:00,
2013-07-10 09:22:00,75.6,50.2,29.78,North,360,4.0,8.0,41,0.00,,,0.00,Wunderground v.1.15,2013-07-10 15:22:00,
2013-07-10 09:23:00,75.6,50.2,29.78,North,360,1.0,8.0,41,0.00,,,0.00,Wunderground v.1.15,2013-07-10 15:23:00,
2013-07-10 09:24:00,75.6,50.2,29.78,North,360,1.0,8.0,41,0.00,,,0.00,Wunderground v.1.15,2013-07-10 15:24:00,
2013-07-10 09:27:00,75.7,50.3,29.78,ENE,61,2.0,8.0,41,0.00,,,0.00,Wunderground v.1.15,2013-07-10 15:27:00,
2013-07-10 09:28:00,75.8,51.1,29.78,NE,51,5.0,8.0,42,0.00,,,0.00,Wunderground v.1.15,2013-07-10 15:28:00,
2013-07-10 09:29:00,75.9,50.5,29.78,North,360,5.0,8.0,41,0.00,,,0.00,Wunderground v.1.15,2013-07-10 15:29:00,
2013-07-10 09:32:00,76.1,50.7,29.78,North,360,2.0,7.0,41,0.00,,,0.00,Wunderground v.1.15,2013-07-10 15:32:00,
2013-07-10 09:33:00,76.2,50.8,29.78,NE,44,4.0,7.0,41,0.00,,,0.00,Wunderground v.1.15,2013-07-10 15:33:00,
2013-07-10 09:34:00,76.2,50.8,29.78,NE,45,5.0,7.0,41,0.00,,,0.00,Wunderground v.1.15,2013-07-10 15:34:00,
2013-07-10 09:37:00,76.2,50.8,29.78,NE,52,0.0,7.0,41,0.00,,,0.00,Wunderground v.1.15,2013-07-10 15:37:00,
2013-07-10 09:38:00,76.3,50.9,29.78,North,360,3.0,7.0,41,0.00,,,0.00,Wunderground v.1.15,2013-07-10 15:38:00,
2013-07-10 09:39:00,76.3,50.9,29.78,North,360,0.0,7.0,41,0.00,,,0.00,Wunderground v.1.15,2013-07-10 15:39:00,
2013-07-10 09:42:00,76.5,51.0,29.78,North,360,3.0,11.0,41,0.00,,,0.00,Wunderground v.1.15,2013-07-10 15:42:00,
2013-07-10 09:43:00,76.5,51.0,29.78,North,360,2.0,11.0,41,0.00,,,0.00,Wunderground v.1.15,2013-07-10 15:43:00,
2013-07-10 09:44:00,76.5,51.0,29.78,NNE,22,5.0,11.0,41,0.00,,,0.00,Wunderground v.1.15,2013-07-10 15:44:00,
2013-07-10 09:47:00,76.5,51.0,29.78,North,360,4.0,11.0,41,0.00,,,0.00,Wunderground v.1.15,2013-07-10 15:47:00,
2013-07-10 09:49:00,76.3,50.9,29.78,NE,42,3.0,11.0,41,0.00,,,0.00,Wunderground v.1.15,2013-07-10 15:49:00,
2013-07-10 09:52:00,76.4,51.0,29.78,North,360,0.0,5.0,41,0.00,,,0.00,Wunderground v.1.15,2013-07-10 15:52:00,
2013-07-10 09:54:00,76.6,50.5,29.78,NE,38,0.0,5.0,40,0.00,,,0.00,Wunderground v.1.15,2013-07-10 15:54:00,
2013-07-10 09:55:00,76.8,50.6,29.78,North,360,2.0,5.0,40,0.00,,,0.00,Wunderground v.1.15,2013-07-10 15:55:00,
2013-07-10 09:57:00,77.2,51.0,29.78,ENE,67,5.0,5.0,40,0.00,,,0.00,Wunderground v.1.15,2013-07-10 15:57:00,
2013-07-10 09:59:00,77.5,50.6,29.78,ENE,65,7.0,8.0,39,0.00,,,0.00,Wunderground v.1.15,2013-07-10 15:59:00,
2013-07-10 10:00:00,77.5,50.6,29.78,North,360,6.0,7.0,39,0.00,,,0.00,Wunderground v.1.15,2013-07-10 16:00:00,
2013-07-10 10:03:00,77.9,50.9,29.78,North,360,3.0,7.0,39,0.00,,,0.00,Wunderground v.1.15,2013-07-10 16:03:00,
2013-07-10 10:05:00,78.2,51.2,29.78,North,360,0.0,7.0,39,0.00,,,0.00,Wunderground v.1.15,2013-07-10 16:05:00,
2013-07-10 10:08:00,78.5,51.5,29.78,North,360,1.0,8.0,39,0.00,,,0.00,Wunderground v.1.15,2013-07-10 16:08:00,
2013-07-10 10:10:00,78.6,51.6,29.78,North,360,0.0,3.0,39,0.00,,,0.00,Wunderground v.1.15,2013-07-10 16:10:00,
2013-07-10 10:13:00,78.7,51.0,29.78,NNE,13,3.0,10.0,38,0.00,,,0.00,Wunderground v.1.15,2013-07-10 16:13:00,
2013-07-10 10:15:00,78.7,51.0,29.78,NNE,23,2.0,10.0,38,0.00,,,0.00,Wunderground v.1.15,2013-07-10 16:15:00,
2013-07-10 10:18:00,78.7,51.0,29.78,NNE,28,4.0,13.0,38,0.00,,,0.00,Wunderground v.1.15,2013-07-10 16:18:00,
2013-07-10 10:20:00,78.7,51.7,29.78,North,360,4.0,10.0,39,0.00,,,0.00,Wunderground v.1.15,2013-07-10 16:20:00,
2013-07-10 10:21:00,78.7,51.7,29.78,NNE,23,3.0,10.0,39,0.00,,,0.00,Wunderground v.1.15,2013-07-10 16:21:00,
2013-07-10 10:23:00,78.8,52.4,29.77,North,360,4.0,10.0,40,0.00,,,0.00,Wunderground v.1.15,2013-07-10 16:23:00,
2013-07-10 10:24:00,78.9,52.5,29.77,North,360,1.0,10.0,40,0.00,,,0.00,Wunderground v.1.15,2013-07-10 16:24:00,
2013-07-10 10:26:00,79.0,52.6,29.78,North,360,3.0,10.0,40,0.00,,,0.00,Wunderground v.1.15,2013-07-10 16:26:00,
2013-07-10 10:29:00,79.1,52.0,29.77,North,360,2.0,10.0,39,0.00,,,0.00,Wunderground v.1.15,2013-07-10 16:29:00,
2013-07-10 10:31:00,79.1,52.0,29.77,North,5,3.0,6.0,39,0.00,,,0.00,Wunderground v.1.15,2013-07-10 16:31:00,
2013-07-10 10:32:00,79.1,52.0,29.77,North,360,2.0,7.0,39,0.00,,,0.00,Wunderground v.1.15,2013-07-10 16:32:00,
2013-07-10 10:34:00,79.2,52.8,29.77,North,360,8.0,8.0,40,0.00,,,0.00,Wunderground v.1.15,2013-07-10 16:34:00,
2013-07-10 10:36:00,79.2,52.1,29.77,North,360,7.0,8.0,39,0.00,,,0.00,Wunderground v.1.15,2013-07-10 16:36:00,
2013-07-10 10:37:00,79.2,52.1,29.77,North,360,3.0,8.0,39,0.00,,,0.00,Wunderground v.1.15,2013-07-10 16:37:00,
2013-07-10 10:40:00,79.5,52.4,29.77,North,5,0.0,3.0,39,0.00,,,0.00,Wunderground v.1.15,2013-07-10 16:40:00,
2013-07-10 10:41:00,79.6,52.5,29.77,NNE,19,2.0,5.0,39,0.00,,,0.00,Wunderground v.1.15,2013-07-10 16:41:00,
2013-07-10 10:42:00,79.7,52.5,29.77,NNE,24,3.0,5.0,39,0.00,,,0.00,Wunderground v.1.15,2013-07-10 16:42:00,
2013-07-10 10:45:00,79.7,51.8,29.77,North,5,4.0,9.0,38,0.00,,,0.00,Wunderground v.1.15,2013-07-10 16:45:00,
2013-07-10 10:47:00,79.8,51.9,29.77,North,350,2.0,9.0,38,0.00,,,0.00,Wunderground v.1.15,2013-07-10 16:47:00,
2013-07-10 10:50:00,79.8,51.9,29.77,NE,36,3.0,7.0,38,0.00,,,0.00,Wunderground v.1.15,2013-07-10 16:50:00,
2013-07-10 10:51:00,79.8,51.9,29.77,North,360,6.0,7.0,38,0.00,,,0.00,Wunderground v.1.15,2013-07-10 16:51:00,
2013-07-10 10:52:00,79.8,51.9,29.77,North,360,10.0,10.0,38,0.00,,,0.00,Wunderground v.1.15,2013-07-10 16:52:00,
2013-07-10 10:53:00,79.8,51.9,29.77,North,360,5.0,10.0,38,0.00,,,0.00,Wunderground v.1.15,2013-07-10 16:53:00,
2013-07-10 10:55:00,79.4,52.3,29.77,NNE,24,6.0,15.0,39,0.00,,,0.00,Wunderground v.1.15,2013-07-10 16:55:00,
2013-07-10 10:56:00,79.4,52.3,29.77,North,360,5.0,15.0,39,0.00,,,0.00,Wunderground v.1.15,2013-07-10 16:56:00,
2013-07-10 10:57:00,79.3,52.2,29.77,NE,41,6.0,15.0,39,0.00,,,0.00,Wunderground v.1.15,2013-07-10 16:57:00,
2013-07-10 10:58:00,79.1,52.0,29.77,North,360,4.0,15.0,39,0.00,,,0.00,Wunderground v.1.15,2013-07-10 16:58:00,
2013-07-10 10:59:00,79.0,51.9,29.77,North,360,2.0,15.0,39,0.00,,,0.00,Wunderground v.1.15,2013-07-10 16:59:00,
2013-07-10 11:01:00,78.9,52.5,29.77,North,360,0.0,5.0,40,0.00,,,0.00,Wunderground v.1.15,2013-07-10 17:01:00,
2013-07-10 11:02:00,79.1,52.7,29.77,North,360,0.0,5.0,40,0.00,,,0.00,Wunderground v.1.15,2013-07-10 17:02:00,
2013-07-10 11:03:00,79.2,52.1,29.77,NE,42,6.0,6.0,39,0.00,,,0.00,Wunderground v.1.15,2013-07-10 17:03:00,
2013-07-10 11:04:00,79.3,52.2,29.77,North,360,0.0,6.0,39,0.00,,,0.00,Wunderground v.1.15,2013-07-10 17:04:00,
2013-07-10 11:06:00,79.8,52.6,29.77,North,360,3.0,6.0,39,0.00,,,0.00,Wunderground v.1.15,2013-07-10 17:06:00,
2013-07-10 11:07:00,80.0,52.8,29.77,North,360,5.0,6.0,39,0.00,,,0.00,Wunderground v.1.15,2013-07-10 17:07:00,
2013-07-10 11:08:00,80.1,52.2,29.77,North,360,0.0,6.0,38,0.00,,,0.00,Wunderground v.1.15,2013-07-10 17:08:00,
2013-07-10 11:10:00,80.3,52.4,29.77,North,360,0.0,2.0,38,0.00,,,0.00,Wunderground v.1.15,2013-07-10 17:10:00,
2013-07-10 11:11:00,80.3,52.4,29.77,North,360,5.0,5.0,38,0.00,,,0.00,Wunderground v.1.15,2013-07-10 17:11:00,
2013-07-10 11:12:00,80.3,52.4,29.77,North,360,0.0,5.0,38,0.00,,,0.00,Wunderground v.1.15,2013-07-10 17:12:00,
2013-07-10 11:13:00,80.3,52.4,29.77,North,360,2.0,5.0,38,0.00,,,0.00,Wunderground v.1.15,2013-07-10 17:13:00,
2013-07-10 11:14:00,80.3,52.4,29.77,North,360,4.0,6.0,38,0.00,,,0.00,Wunderground v.1.15,2013-07-10 17:14:00,
2013-07-10 11:15:00,80.4,52.5,29.77,North,360,3.0,6.0,38,0.00,,,0.00,Wunderground v.1.15,2013-07-10 17:15:00,
2013-07-10 11:16:00,80.7,52.7,29.77,North,360,6.0,9.0,38,0.00,,,0.00,Wunderground v.1.15,2013-07-10 17:16:00,
2013-07-10 11:17:00,80.8,52.8,29.77,NE,53,2.0,9.0,38,0.00,,,0.00,Wunderground v.1.15,2013-07-10 17:17:00,
2013-07-10 11:18:00,80.9,52.2,29.77,North,360,1.0,9.0,37,0.00,,,0.00,Wunderground v.1.15,2013-07-10 17:18:00,
2013-07-10 11:19:00,81.1,52.4,29.77,North,360,0.0,2.0,37,0.00,,,0.00,Wunderground v.1.15,2013-07-10 17:19:00,
2013-07-10 11:20:00,81.1,52.4,29.77,North,360,0.0,2.0,37,0.00,,,0.00,Wunderground v.1.15,2013-07-10 17:20:00,
2013-07-10 11:21:00,81.2,52.4,29.77,North,360,5.0,5.0,37,0.00,,,0.00,Wunderground v.1.15,2013-07-10 17:21:00,
2013-07-10 11:22:00,81.2,52.4,29.77,NE,47,0.0,6.0,37,0.00,,,0.00,Wunderground v.1.15,2013-07-10 17:22:00,
2013-07-10 11:23:00,81.1,52.4,29.77,North,360,4.0,6.0,37,0.00,,,0.00,Wunderground v.1.15,2013-07-10 17:23:00,
2013-07-10 11:25:00,81.1,52.4,29.77,North,360,2.0,6.0,37,0.00,,,0.00,Wunderground v.1.15,2013-07-10 17:25:00,
2013-07-10 11:28:00,81.3,52.5,29.77,North,360,1.0,6.0,37,0.00,,,0.00,Wunderground v.1.15,2013-07-10 17:28:00,
2013-07-10 11:30:00,81.5,52.7,29.76,North,360,3.0,4.0,37,0.00,,,0.00,Wunderground v.1.15,2013-07-10 17:30:00,
2013-07-10 11:33:00,81.7,52.9,29.76,North,360,4.0,6.0,37,0.00,,,0.00,Wunderground v.1.15,2013-07-10 17:33:00,
2013-07-10 11:34:00,81.8,53.0,29.76,North,360,14.0,14.0,37,0.00,,,0.00,Wunderground v.1.15,2013-07-10 17:34:00,
2013-07-10 11:35:00,81.8,53.0,29.76,North,360,4.0,14.0,37,0.00,,,0.00,Wunderground v.1.15,2013-07-10 17:35:00,
2013-07-10 11:38:00,81.9,53.8,29.76,North,360,0.0,14.0,38,0.00,,,0.00,Wunderground v.1.15,2013-07-10 17:38:00,
2013-07-10 11:39:00,82.0,54.6,29.76,North,360,3.0,14.0,39,0.00,,,0.00,Wunderground v.1.15,2013-07-10 17:39:00,
2013-07-10 11:40:00,82.1,54.0,29.76,North,360,4.0,4.0,38,0.00,,,0.00,Wunderground v.1.15,2013-07-10 17:40:00,
2013-07-10 11:43:00,82.1,54.0,29.76,NNE,27,6.0,15.0,38,0.00,,,0.00,Wunderground v.1.15,2013-07-10 17:43:00,
2013-07-10 11:44:00,82.1,53.2,29.75,North,360,6.0,15.0,37,0.00,,,0.00,Wunderground v.1.15,2013-07-10 17:44:00,
2013-07-10 11:45:00,82.1,54.0,29.75,North,360,5.0,15.0,38,0.00,,,0.00,Wunderground v.1.15,2013-07-10 17:45:00,
2013-07-10 11:48:00,82.1,54.0,29.75,North,360,5.0,15.0,38,0.00,,,0.00,Wunderground v.1.15,2013-07-10 17:48:00,
2013-07-10 11:49:00,82.0,53.9,29.75,North,360,3.0,15.0,38,0.00,,,0.00,Wunderground v.1.15,2013-07-10 17:49:00,
2013-07-10 11:50:00,82.0,53.9,29.75,North,360,5.0,7.0,38,0.00,,,0.00,Wunderground v.1.15,2013-07-10 17:50:00,
2013-07-10 11:51:00,81.8,53.7,29.75,North,360,6.0,8.0,38,0.00,,,0.00,Wunderground v.1.15,2013-07-10 17:51:00,
2013-07-10 11:54:00,81.6,53.5,29.75,North,360,2.0,9.0,38,0.00,,,0.00,Wunderground v.1.15,2013-07-10 17:54:00,
2013-07-10 11:55:00,81.6,53.5,29.75,North,360,1.0,9.0,38,0.00,,,0.00,Wunderground v.1.15,2013-07-10 17:55:00,
2013-07-10 11:56:00,81.5,53.4,29.75,North,5,10.0,13.0,38,0.00,,,0.00,Wunderground v.1.15,2013-07-10 17:56:00,
2013-07-10 11:59:00,81.3,53.3,29.75,NNE,19,0.0,13.0,38,0.00,,,0.00,Wunderground v.1.15,2013-07-10 17:59:00,
2013-07-10 12:00:00,81.3,54.0,29.75,NNE,24,3.0,3.0,39,0.00,,,0.00,Wunderground v.1.15,2013-07-10 18:00:00,
2013-07-10 12:02:00,81.3,53.3,29.75,North,360,4.0,8.0,38,0.00,,,0.00,Wunderground v.1.15,2013-07-10 18:02:00,
2013-07-10 12:04:00,80.9,52.9,29.75,North,360,0.0,9.0,38,0.00,,,0.00,Wunderground v.1.15,2013-07-10 18:04:00,
2013-07-10 12:05:00,80.7,53.4,29.74,ENE,67,1.0,9.0,39,0.00,,,0.00,Wunderground v.1.15,2013-07-10 18:05:00,
2013-07-10 12:06:00,80.6,53.4,29.74,ENE,68,0.0,9.0,39,0.00,,,0.00,Wunderground v.1.15,2013-07-10 18:06:00,
2013-07-10 12:07:00,80.6,53.4,29.74,North,360,0.0,9.0,39,0.00,,,0.00,Wunderground v.1.15,2013-07-10 18:07:00,
2013-07-10 12:09:00,80.5,53.3,29.74,North,360,0.0,9.0,39,0.00,,,0.00,Wunderground v.1.15,2013-07-10 18:09:00,
2013-07-10 12:11:00,80.5,54.0,29.75,ENE,64,3.0,3.0,40,0.00,,,0.00,Wunderground v.1.15,2013-07-10 18:11:00,
2013-07-10 12:12:00,80.5,54.0,29.75,NNW,346,4.0,6.0,40,0.00,,,0.00,Wunderground v.1.15,2013-07-10 18:12:00,
2013-07-10 12:14:00,80.4,53.9,29.75,North,360,1.0,6.0,40,0.00,,,0.00,Wunderground v.1.15,2013-07-10 18:14:00,
2013-07-10 12:16:00,80.3,53.8,29.75,North,360,6.0,8.0,40,0.00,,,0.00,Wunderground v.1.15,2013-07-10 18:16:00,
2013-07-10 12:17:00,80.2,53.7,29.75,North,360,0.0,8.0,40,0.00,,,0.00,Wunderground v.1.15,2013-07-10 18:17:00,
2013-07-10 12:19:00,80.0,53.5,29.75,NNE,22,0.0,8.0,40,0.00,,,0.00,Wunderground v.1.15,2013-07-10 18:19:00,
2013-07-10 12:21:00,80.0,53.5,29.75,NNE,21,2.0,5.0,40,0.00,,,0.00,Wunderground v.1.15,2013-07-10 18:21:00,
2013-07-10 12:22:00,80.0,53.5,29.75,NNE,22,0.0,5.0,40,0.00,,,0.00,Wunderground v.1.15,2013-07-10 18:22:00,
2013-07-10 12:24:00,79.7,53.2,29.75,North,360,3.0,9.0,40,0.00,,,0.00,Wunderground v.1.15,2013-07-10 18:24:00,
2013-07-10 12:26:00,79.4,53.0,29.75,North,360,4.0,11.0,40,0.00,,,0.00,Wunderground v.1.15,2013-07-10 18:26:00,
2013-07-10 12:27:00,79.2,52.8,29.75,North,360,1.0,11.0,40,0.00,,,0.00,Wunderground v.1.15,2013-07-10 18:27:00,
2013-07-10 12:28:00,78.9,53.2,29.75,NW,308,6.0,11.0,41,0.00,,,0.00,Wunderground v.1.15,2013-07-10 18:28:00,
2013-07-10 12:30:00,78.7,53.0,29.75,North,360,3.0,5.0,41,0.00,,,0.00,Wunderground v.1.15,2013-07-10 18:30:00,
2013-07-10 12:32:00,78.3,53.3,29.75,NW,307,1.0,10.0,42,0.00,,,0.00,Wunderground v.1.15,2013-07-10 18:32:00,
2013-07-10 12:34:00,78.0,53.0,29.75,North,360,9.0,11.0,42,0.00,,,0.00,Wunderground v.1.15,2013-07-10 18:34:00,
2013-07-10 12:35:00,77.9,53.0,29.75,North,360,5.0,11.0,42,0.00,,,0.00,Wunderground v.1.15,2013-07-10 18:35:00,
2013-07-10 12:37:00,77.5,52.6,29.75,North,360,5.0,11.0,42,0.00,,,0.00,Wunderground v.1.15,2013-07-10 18:37:00,
2013-07-10 12:38:00,77.4,53.1,29.75,NW,319,4.0,11.0,43,0.00,,,0.00,Wunderground v.1.15,2013-07-10 18:38:00,
2013-07-10 12:39:00,77.3,53.1,29.75,North,360,6.0,11.0,43,0.00,,,0.00,Wunderground v.1.15,2013-07-10 18:39:00,
2013-07-10 12:40:00,77.1,52.9,29.75,North,360,3.0,5.0,43,0.00,,,0.00,Wunderground v.1.15,2013-07-10 18:40:00,
2013-07-10 12:42:00,76.9,52.7,29.75,North,360,0.0,5.0,43,0.00,,,0.00,Wunderground v.1.15,2013-07-10 18:42:00,
2013-07-10 12:43:00,76.9,52.7,29.75,North,360,3.0,5.0,43,0.00,,,0.00,Wunderground v.1.15,2013-07-10 18:43:00,
2013-07-10 12:44:00,76.8,53.2,29.75,North,360,6.0,6.0,44,0.00,,,0.00,Wunderground v.1.15,2013-07-10 18:44:00,
2013-07-10 12:45:00,76.7,53.1,29.75,North,360,5.0,8.0,44,0.00,,,0.00,Wunderground v.1.15,2013-07-10 18:45:00,
2013-07-10 12:47:00,76.6,48.4,29.75,North,360,3.0,8.0,37,0.00,,,0.00,Wunderground v.1.15,2013-07-10 18:47:00,
2013-07-10 12:48:00,76.7,48.5,29.75,WSW,246,4.0,8.0,37,0.00,,,0.00,Wunderground v.1.15,2013-07-10 18:48:00,
2013-07-10 12:49:00,76.7,48.5,29.75,North,360,5.0,8.0,37,0.00,,,0.00,Wunderground v.1.15,2013-07-10 18:49:00,
2013-07-10 12:50:00,76.9,47.2,29.75,North,360,5.0,12.0,35,0.00,,,0.00,Wunderground v.1.15,2013-07-10 18:50:00,
2013-07-10 12:52:00,77.3,45.9,29.75,SSE,162,9.0,18.0,33,0.00,,,0.00,Wunderground v.1.15,2013-07-10 18:52:00,
2013-07-10 12:53:00,77.9,46.5,29.75,South,169,14.0,18.0,33,0.00,,,0.00,Wunderground v.1.15,2013-07-10 18:53:00,
2013-07-10 12:54:00,78.3,46.8,29.75,SSE,148,12.0,24.0,33,0.00,,,0.00,Wunderground v.1.15,2013-07-10 18:54:00,
2013-07-10 12:55:00,78.7,47.2,29.75,North,360,6.0,24.0,33,0.00,,,0.00,Wunderground v.1.15,2013-07-10 18:55:00,
2013-07-10 12:57:00,79.1,46.7,29.74,North,360,5.0,24.0,32,0.00,,,0.00,Wunderground v.1.15,2013-07-10 18:57:00,
2013-07-10 12:58:00,79.1,46.7,29.74,North,360,5.0,24.0,32,0.00,,,0.00,Wunderground v.1.15,2013-07-10 18:58:00,
2013-07-10 13:00:00,79.3,46.9,29.76,North,360,10.0,13.0,32,0.00,,,0.00,Wunderground v.1.15,2013-07-10 19:00:00,
2013-07-10 13:01:00,79.3,46.9,29.76,North,360,5.0,13.0,32,0.00,,,0.00,Wunderground v.1.15,2013-07-10 19:01:00,
2013-07-10 13:02:00,78.9,53.2,29.76,North,360,5.0,13.0,41,0.00,,,0.00,Wunderground v.1.15,2013-07-10 19:02:00,
2013-07-10 13:03:00,78.9,53.9,29.76,WNW,288,9.0,13.0,42,0.00,,,0.00,Wunderground v.1.15,2013-07-10 19:03:00,
2013-07-10 13:06:00,78.1,53.8,29.77,North,360,7.0,14.0,43,0.00,,,0.00,Wunderground v.1.15,2013-07-10 19:06:00,
2013-07-10 13:07:00,77.8,54.1,29.77,North,360,7.0,14.0,44,0.00,,,0.00,Wunderground v.1.15,2013-07-10 19:07:00,
2013-07-10 13:08:00,77.7,54.0,29.77,North,360,4.0,14.0,44,0.00,,,0.00,Wunderground v.1.15,2013-07-10 19:08:00,
2013-07-10 13:09:00,77.5,53.9,29.77,West,261,4.0,14.0,44,0.00,,,0.00,Wunderground v.1.15,2013-07-10 19:09:00,
2013-07-10 13:11:00,77.1,54.1,29.77,North,360,5.0,6.0,45,0.00,,,0.00,Wunderground v.1.15,2013-07-10 19:11:00,
2013-07-10 13:12:00,76.7,54.4,29.77,North,360,4.0,8.0,46,0.00,,,0.00,Wunderground v.1.15,2013-07-10 19:12:00,
2013-07-10 13:13:00,76.7,54.4,29.77,West,259,7.0,8.0,46,0.00,,,0.00,Wunderground v.1.15,2013-07-10 19:13:00,
2013-07-10 13:14:00,76.5,54.2,29.77,West,269,3.0,8.0,46,0.00,,,0.00,Wunderground v.1.15,2013-07-10 19:14:00,
2013-07-10 13:16:00,76.3,54.0,29.77,West,269,0.0,8.0,46,0.00,,,0.00,Wunderground v.1.15,2013-07-10 19:16:00,
2013-07-10 13:18:00,76.1,53.8,29.76,West,268,0.0,8.0,46,0.00,,,0.00,Wunderground v.1.15,2013-07-10 19:18:00,
2013-07-10 13:19:00,76.1,53.8,29.76,West,268,0.0,8.0,46,0.00,,,0.00,Wunderground v.1.15,2013-07-10 19:19:00,
2013-07-10 13:21:00,76.0,54.3,29.76,West,268,0.0,3.0,47,0.00,,,0.00,Wunderground v.1.15,2013-07-10 19:21:00,
2013-07-10 13:23:00,76.0,54.3,29.76,West,268,0.0,3.0,47,0.00,,,0.00,Wunderground v.1.15,2013-07-10 19:23:00,
2013-07-10 13:24:00,76.0,54.3,29.76,West,269,0.0,3.0,47,0.00,,,0.00,Wunderground v.1.15,2013-07-10 19:24:00,
2013-07-10 13:26:00,76.0,54.3,29.76,West,281,4.0,5.0,47,0.00,,,0.00,Wunderground v.1.15,2013-07-10 19:26:00,
2013-07-10 13:28:00,76.0,54.3,29.75,NW,323,0.0,5.0,47,0.00,,,0.00,Wunderground v.1.15,2013-07-10 19:28:00,
2013-07-10 13:29:00,76.1,55.0,29.75,North,360,3.0,5.0,48,0.00,,,0.00,Wunderground v.1.15,2013-07-10 19:29:00,
2013-07-10 13:30:00,76.2,55.1,29.75,North,360,5.0,5.0,48,0.00,,,0.00,Wunderground v.1.15,2013-07-10 19:30:00,
2013-07-10 13:31:00,76.3,55.2,29.75,NNW,341,0.0,6.0,48,0.00,,,0.00,Wunderground v.1.15,2013-07-10 19:31:00,
2013-07-10 13:32:00,76.3,55.2,29.75,NNW,340,6.0,6.0,48,0.00,,,0.00,Wunderground v.1.15,2013-07-10 19:32:00,
2013-07-10 13:33:00,76.4,55.3,29.75,NNW,340,2.0,8.0,48,0.00,,,0.00,Wunderground v.1.15,2013-07-10 19:33:00,
2013-07-10 13:34:00,76.5,55.3,29.75,NNW,340,3.0,8.0,48,0.00,,,0.00,Wunderground v.1.15,2013-07-10 19:34:00,
2013-07-10 13:35:00,76.5,55.3,29.75,North,360,3.0,8.0,48,0.00,,,0.00,Wunderground v.1.15,2013-07-10 19:35:00,
2013-07-10 13:36:00,76.7,55.5,29.75,North,360,1.0,8.0,48,0.00,,,0.00,Wunderground v.1.15,2013-07-10 19:36:00,
2013-07-10 13:37:00,76.7,55.0,29.75,North,360,4.0,8.0,47,0.00,,,0.00,Wunderground v.1.15,2013-07-10 19:37:00,
2013-07-10 13:38:00,76.9,55.1,29.75,North,360,4.0,10.0,47,0.00,,,0.00,Wunderground v.1.15,2013-07-10 19:38:00,
2013-07-10 13:39:00,77.1,55.3,29.75,North,360,8.0,10.0,47,0.00,,,0.00,Wunderground v.1.15,2013-07-10 19:39:00,
2013-07-10 13:40:00,77.3,55.5,29.75,NW,316,7.0,8.0,47,0.00,,,0.00,Wunderground v.1.15,2013-07-10 19:40:00,
2013-07-10 13:42:00,77.7,55.9,29.75,North,360,4.0,8.0,47,0.00,,,0.00,Wunderground v.1.15,2013-07-10 19:42:00,
2013-07-10 13:43:00,78.2,56.3,29.75,North,360,0.0,8.0,47,0.00,,,0.00,Wunderground v.1.15,2013-07-10 19:43:00,
2013-07-10 13:44:00,78.5,56.6,29.75,NNW,342,4.0,8.0,47,0.00,,,0.00,Wunderground v.1.15,2013-07-10 19:44:00,
2013-07-10 13:45:00,78.9,57.0,29.75,NW,316,7.0,10.0,47,0.00,,,0.00,Wunderground v.1.15,2013-07-10 19:45:00,
2013-07-10 13:47:00,79.4,56.8,29.75,North,360,1.0,12.0,46,0.00,,,0.00,Wunderground v.1.15,2013-07-10 19:47:00,
2013-07-10 13:48:00,79.6,56.4,29.75,North,360,3.0,12.0,45,0.00,,,0.00,Wunderground v.1.15,2013-07-10 19:48:00,
2013-07-10 13:49:00,79.8,55.9,29.75,North,360,5.0,12.0,44,0.00,,,0.00,Wunderground v.1.15,2013-07-10 19:49:00,
2013-07-10 13:51:00,80.0,56.1,29.76,NNE,28,1.0,4.0,44,0.00,,,0.00,Wunderground v.1.15,2013-07-10 19:51:00,
2013-07-10 13:52:00,80.2,56.3,29.76,North,360,7.0,9.0,44,0.00,,,0.00,Wunderground v.1.15,2013-07-10 19:52:00,
2013-07-10 13:53:00,80.3,56.4,29.76,North,360,7.0,9.0,44,0.00,,,0.00,Wunderground v.1.15,2013-07-10 19:53:00,
2013-07-10 13:54:00,80.2,55.7,29.76,North,360,10.0,12.0,43,0.00,,,0.00,Wunderground v.1.15,2013-07-10 19:54:00,
2013-07-10 13:55:00,80.1,56.2,29.76,North,360,9.0,12.0,44,0.00,,,0.00,Wunderground v.1.15,2013-07-10 19:55:00,
2013-07-10 13:56:00,80.0,56.1,29.76,North,360,9.0,16.0,44,0.00,,,0.00,Wunderground v.1.15,2013-07-10 19:56:00,
2013-07-10 13:58:00,79.8,56.6,29.76,North,360,3.0,18.0,45,0.00,,,0.00,Wunderground v.1.15,2013-07-10 19:58:00,
2013-07-10 13:59:00,79.8,56.6,29.76,North,360,9.0,18.0,45,0.00,,,0.00,Wunderground v.1.15,2013-07-10 19:59:00,
2013-07-10 14:00:00,79.6,57.0,29.75,North,360,7.0,7.0,46,0.00,,,0.00,Wunderground v.1.15,2013-07-10 20:00:00,
2013-07-10 14:01:00,79.6,57.0,29.75,North,360,11.0,12.0,46,0.00,,,0.00,Wunderground v.1.15,2013-07-10 20:01:00,
2013-07-10 14:03:00,79.3,56.7,29.75,North,360,3.0,12.0,46,0.00,,,0.00,Wunderground v.1.15,2013-07-10 20:03:00,
2013-07-10 14:04:00,79.3,57.3,29.75,North,360,7.0,12.0,47,0.00,,,0.00,Wunderground v.1.15,2013-07-10 20:04:00,
2013-07-10 14:05:00,79.2,56.6,29.74,North,360,7.0,12.0,46,0.00,,,0.00,Wunderground v.1.15,2013-07-10 20:05:00,
2013-07-10 14:06:00,79.1,56.5,29.74,North,360,7.0,12.0,46,0.00,,,0.00,Wunderground v.1.15,2013-07-10 20:06:00,
2013-07-10 14:08:00,79.0,56.5,29.73,NNW,341,5.0,13.0,46,0.00,,,0.00,Wunderground v.1.15,2013-07-10 20:08:00,
2013-07-10 14:09:00,78.9,56.4,29.73,North,360,6.0,13.0,46,0.00,,,0.00,Wunderground v.1.15,2013-07-10 20:09:00,
2013-07-10 14:10:00,78.9,56.4,29.73,North,360,4.0,6.0,46,0.00,,,0.00,Wunderground v.1.15,2013-07-10 20:10:00,
2013-07-10 14:11:00,78.7,57.9,29.72,North,360,4.0,9.0,49,0.00,,,0.00,Wunderground v.1.15,2013-07-10 20:11:00,
2013-07-10 14:14:00,78.7,59.0,29.73,North,360,3.0,9.0,51,0.00,,,0.00,Wunderground v.1.15,2013-07-10 20:14:00,
2013-07-10 14:15:00,78.6,59.5,29.73,NNE,28,0.0,9.0,52,0.00,,,0.00,Wunderground v.1.15,2013-07-10 20:15:00,
2013-07-10 14:16:00,78.4,58.2,29.73,NNE,28,0.0,9.0,50,0.00,,,0.00,Wunderground v.1.15,2013-07-10 20:16:00,
2013-07-10 14:19:00,78.2,58.0,29.73,North,360,1.0,9.0,50,0.00,,,0.00,Wunderground v.1.15,2013-07-10 20:19:00,
2013-07-10 14:20:00,78.1,57.4,29.73,NNE,30,3.0,3.0,49,0.00,,,0.00,Wunderground v.1.15,2013-07-10 20:20:00,
2013-07-10 14:21:00,78.1,57.4,29.73,North,360,4.0,4.0,49,0.00,,,0.00,Wunderground v.1.15,2013-07-10 20:21:00,
2013-07-10 14:22:00,78.1,57.4,29.73,North,360,1.0,4.0,49,0.00,,,0.00,Wunderground v.1.15,2013-07-10 20:22:00,
2013-07-10 14:24:00,77.9,57.8,29.73,NE,34,1.0,4.0,50,0.00,,,0.00,Wunderground v.1.15,2013-07-10 20:24:00,
2013-07-10 14:26:00,77.9,57.2,29.73,North,360,0.0,4.0,49,0.00,,,0.00,Wunderground v.1.15,2013-07-10 20:26:00,
2013-07-10 14:27:00,77.9,57.2,29.73,North,360,6.0,6.0,49,0.00,,,0.00,Wunderground v.1.15,2013-07-10 20:27:00,
2013-07-10 14:29:00,77.8,57.1,29.73,North,360,0.0,7.0,49,0.00,,,0.00,Wunderground v.1.15,2013-07-10 20:29:00,
2013-07-10 14:30:00,77.8,57.1,29.73,North,360,5.0,5.0,49,0.00,,,0.00,Wunderground v.1.15,2013-07-10 20:30:00,
2013-07-10 14:31:00,77.7,56.4,29.73,North,360,5.0,5.0,48,0.00,,,0.00,Wunderground v.1.15,2013-07-10 20:31:00,
2013-07-10 14:32:00,77.7,56.4,29.73,North,360,5.0,6.0,48,0.00,,,0.00,Wunderground v.1.15,2013-07-10 20:32:00,
2013-07-10 14:35:00,77.6,56.4,29.72,North,360,4.0,9.0,48,0.00,,,0.00,Wunderground v.1.15,2013-07-10 20:35:00,
2013-07-10 14:36:00,77.6,56.4,29.72,North,360,4.0,9.0,48,0.00,,,0.00,Wunderground v.1.15,2013-07-10 20:36:00,
2013-07-10 14:38:00,77.6,56.9,29.72,North,360,1.0,9.0,49,0.00,,,0.00,Wunderground v.1.15,2013-07-10 20:38:00,
2013-07-10 14:40:00,77.5,56.8,29.73,North,360,2.0,4.0,49,0.00,,,0.00,Wunderground v.1.15,2013-07-10 20:40:00,
2013-07-10 14:41:00,77.5,56.8,29.73,North,360,5.0,8.0,49,0.00,,,0.00,Wunderground v.1.15,2013-07-10 20:41:00,
2013-07-10 14:43:00,77.6,57.5,29.73,North,360,4.0,8.0,50,0.00,,,0.00,Wunderground v.1.15,2013-07-10 20:43:00,
2013-07-10 14:45:00,78.0,57.9,29.73,North,360,2.0,8.0,50,0.00,,,0.00,Wunderground v.1.15,2013-07-10 20:45:00,
2013-07-10 14:46:00,78.2,57.5,29.73,North,360,0.0,8.0,49,0.00,,,0.00,Wunderground v.1.15,2013-07-10 20:46:00,
2013-07-10 14:49:00,78.9,58.1,29.72,North,360,4.0,8.0,49,0.00,,,0.00,Wunderground v.1.15,2013-07-10 20:49:00,
2013-07-10 14:50:00,79.1,55.9,29.72,North,360,1.0,2.0,45,0.00,,,0.00,Wunderground v.1.15,2013-07-10 20:50:00,
2013-07-10 14:51:00,79.3,56.1,29.72,North,360,0.0,2.0,45,0.00,,,0.00,Wunderground v.1.15,2013-07-10 20:51:00,
2013-07-10 14:54:00,79.6,55.8,29.72,North,360,4.0,4.0,44,0.00,,,0.00,Wunderground v.1.15,2013-07-10 20:54:00,
2013-07-10 14:55:00,79.8,56.6,29.72,NNW,328,0.0,4.0,45,0.00,,,0.00,Wunderground v.1.15,2013-07-10 20:55:00,
2013-07-10 14:56:00,79.8,57.2,29.72,NNW,328,0.0,4.0,46,0.00,,,0.00,Wunderground v.1.15,2013-07-10 20:56:00,
2013-07-10 14:59:00,80.0,58.0,29.72,NW,323,0.0,4.0,47,0.00,,,0.00,Wunderground v.1.15,2013-07-10 20:59:00,
2013-07-10 15:00:00,80.2,57.5,29.72,North,360,3.0,3.0,46,0.00,,,0.00,Wunderground v.1.15,2013-07-10 21:00:00,
2013-07-10 15:01:00,80.3,57.0,29.72,NW,326,2.0,3.0,45,0.00,,,0.00,Wunderground v.1.15,2013-07-10 21:01:00,
2013-07-10 15:02:00,80.3,57.0,29.72,NW,326,2.0,4.0,45,0.00,,,0.00,Wunderground v.1.15,2013-07-10 21:02:00,
2013-07-10 15:04:00,80.4,57.7,29.72,North,360,0.0,4.0,46,0.00,,,0.00,Wunderground v.1.15,2013-07-10 21:04:00,
2013-07-10 15:06:00,80.3,55.1,29.72,West,269,1.0,9.0,42,0.00,,,0.00,Wunderground v.1.15,2013-07-10 21:06:00,
2013-07-10 15:07:00,80.4,56.5,29.72,West,268,0.0,9.0,44,0.00,,,0.00,Wunderground v.1.15,2013-07-10 21:07:00,
2013-07-10 15:09:00,80.3,53.1,29.72,West,273,4.0,9.0,39,0.00,,,0.00,Wunderground v.1.15,2013-07-10 21:09:00,
2013-07-10 15:11:00,80.3,52.4,29.72,West,273,0.0,2.0,38,0.00,,,0.00,Wunderground v.1.15,2013-07-10 21:11:00,
2013-07-10 15:12:00,80.3,53.1,29.72,West,273,0.0,2.0,39,0.00,,,0.00,Wunderground v.1.15,2013-07-10 21:12:00,
2013-07-10 15:14:00,80.2,52.3,29.71,North,360,3.0,4.0,38,0.00,,,0.00,Wunderground v.1.15,2013-07-10 21:14:00,
2013-07-10 15:16:00,80.2,51.6,29.71,North,360,2.0,4.0,37,0.00,,,0.00,Wunderground v.1.15,2013-07-10 21:16:00,
2013-07-10 15:17:00,80.2,51.6,29.71,North,360,4.0,5.0,37,0.00,,,0.00,Wunderground v.1.15,2013-07-10 21:17:00,
2013-07-10 15:20:00,80.2,51.6,29.70,West,272,0.0,1.0,37,0.00,,,0.00,Wunderground v.1.15,2013-07-10 21:20:00,
2013-07-10 15:21:00,80.3,51.7,29.70,West,272,2.0,2.0,37,0.00,,,0.00,Wunderground v.1.15,2013-07-10 21:21:00,
2013-07-10 15:22:00,80.3,51.7,29.70,West,273,0.0,2.0,37,0.00,,,0.00,Wunderground v.1.15,2013-07-10 21:22:00,
2013-07-10 15:26:00,80.3,51.7,29.69,West,271,0.0,2.0,37,0.00,,,0.00,Wunderground v.1.15,2013-07-10 21:26:00,
2013-07-10 15:27:00,80.3,51.7,29.69,North,360,4.0,5.0,37,0.00,,,0.00,Wunderground v.1.15,2013-07-10 21:27:00,
2013-07-10 15:31:00,81.5,52.0,29.69,West,277,0.0,3.0,36,0.00,,,0.00,Wunderground v.1.15,2013-07-10 21:31:00,
2013-07-10 15:32:00,81.8,52.2,29.69,West,280,0.0,3.0,36,0.00,,,0.00,Wunderground v.1.15,2013-07-10 21:32:00,
2013-07-10 15:37:00,83.3,55.0,29.70,North,360,0.0,6.0,38,0.00,,,0.00,Wunderground v.1.15,2013-07-10 21:37:00,
2013-07-10 15:38:00,83.6,54.6,29.70,North,360,0.0,6.0,37,0.00,,,0.00,Wunderground v.1.15,2013-07-10 21:38:00,
2013-07-10 15:42:00,83.5,53.7,29.70,North,360,0.0,1.0,36,0.00,,,0.00,Wunderground v.1.15,2013-07-10 21:42:00,
2013-07-10 15:43:00,83.5,54.5,29.70,North,360,0.0,1.0,37,0.00,,,0.00,Wunderground v.1.15,2013-07-10 21:43:00,
2013-07-10 15:48:00,83.8,52.4,29.69,North,360,0.0,3.0,34,0.00,,,0.00,Wunderground v.1.15,2013-07-10 21:48:00,
2013-07-10 15:53:00,84.6,51.5,29.69,North,360,1.0,5.0,32,0.00,,,0.00,Wunderground v.1.15,2013-07-10 21:53:00,
2013-07-10 15:55:00,84.8,51.7,29.69,NNE,17,1.0,5.0,32,0.00,,,0.00,Wunderground v.1.15,2013-07-10 21:55:00,
2013-07-10 15:58:00,85.0,51.8,29.69,North,360,0.0,5.0,32,0.00,,,0.00,Wunderground v.1.15,2013-07-10 21:58:00,
2013-07-10 15:59:00,85.0,51.0,29.69,North,360,0.0,5.0,31,0.00,,,0.00,Wunderground v.1.15,2013-07-10 21:59:00,
2013-07-10 16:00:00,85.0,51.8,29.69,North,360,0.0,1.0,32,0.00,,,0.00,Wunderground v.1.15,2013-07-10 22:00:00,
2013-07-10 16:03:00,85.5,51.4,29.69,NNE,15,1.0,4.0,31,0.00,,,0.00,Wunderground v.1.15,2013-07-10 22:03:00,
2013-07-10 16:04:00,85.7,51.6,29.69,NNE,15,3.0,4.0,31,0.00,,,0.00,Wunderground v.1.15,2013-07-10 22:04:00,
2013-07-10 16:05:00,85.9,51.8,29.68,North,360,0.0,4.0,31,0.00,,,0.00,Wunderground v.1.15,2013-07-10 22:05:00,
2013-07-10 16:08:00,85.9,51.8,29.68,North,9,0.0,4.0,31,0.00,,,0.00,Wunderground v.1.15,2013-07-10 22:08:00,
2013-07-10 16:09:00,85.9,51.8,29.68,North,360,0.0,4.0,31,0.00,,,0.00,Wunderground v.1.15,2013-07-10 22:09:00,
2013-07-10 16:10:00,86.0,51.8,29.68,NE,34,2.0,3.0,31,0.00,,,0.00,Wunderground v.1.15,2013-07-10 22:10:00,
2013-07-10 16:13:00,86.2,52.0,29.68,North,360,2.0,4.0,31,0.00,,,0.00,Wunderground v.1.15,2013-07-10 22:13:00,
2013-07-10 16:14:00,86.3,52.1,29.68,North,360,1.0,4.0,31,0.00,,,0.00,Wunderground v.1.15,2013-07-10 22:14:00,
2013-07-10 16:15:00,86.4,52.2,29.68,NE,39,0.0,4.0,31,0.00,,,0.00,Wunderground v.1.15,2013-07-10 22:15:00,
2013-07-10 16:16:00,86.4,51.3,29.68,NE,38,1.0,4.0,30,0.00,,,0.00,Wunderground v.1.15,2013-07-10 22:16:00,
2013-07-10 16:18:00,86.6,52.4,29.68,North,360,0.0,5.0,31,0.00,,,0.00,Wunderground v.1.15,2013-07-10 22:18:00,
2013-07-10 16:19:00,86.6,52.4,29.68,North,360,0.0,5.0,31,0.00,,,0.00,Wunderground v.1.15,2013-07-10 22:19:00,
2013-07-10 16:20:00,86.8,53.4,29.68,North,360,3.0,3.0,32,0.00,,,0.00,Wunderground v.1.15,2013-07-10 22:20:00,
2013-07-10 16:22:00,87.0,52.7,29.67,East,96,5.0,8.0,31,0.00,,,0.00,Wunderground v.1.15,2013-07-10 22:22:00,
2013-07-10 16:24:00,87.1,51.0,29.67,ESE,105,5.0,10.0,29,0.00,,,0.00,Wunderground v.1.15,2013-07-10 22:24:00,
2013-07-10 16:25:00,87.1,51.0,29.67,ESE,102,7.0,10.0,29,0.00,,,0.00,Wunderground v.1.15,2013-07-10 22:25:00,
2013-07-10 16:27:00,87.2,51.1,29.67,ESE,119,8.0,13.0,29,0.00,,,0.00,Wunderground v.1.15,2013-07-10 22:27:00,
2013-07-10 16:29:00,87.3,51.2,29.67,North,360,8.0,13.0,29,0.00,,,0.00,Wunderground v.1.15,2013-07-10 22:29:00,
2013-07-10 16:30:00,87.3,52.1,29.67,North,360,1.0,6.0,30,0.00,,,0.00,Wunderground v.1.15,2013-07-10 22:30:00,
2013-07-10 16:32:00,87.2,52.9,29.67,North,360,8.0,11.0,31,0.00,,,0.00,Wunderground v.1.15,2013-07-10 22:32:00,
2013-07-10 16:34:00,87.1,51.9,29.67,ESE,119,9.0,15.0,30,0.00,,,0.00,Wunderground v.1.15,2013-07-10 22:34:00,
2013-07-10 16:35:00,87.1,51.0,29.67,North,360,6.0,15.0,29,0.00,,,0.00,Wunderground v.1.15,2013-07-10 22:35:00,
2013-07-10 16:38:00,87.1,51.0,29.67,ESE,113,11.0,15.0,29,0.00,,,0.00,Wunderground v.1.15,2013-07-10 22:38:00,
2013-07-10 16:39:00,87.0,50.9,29.67,ESE,119,8.0,15.0,29,0.00,,,0.00,Wunderground v.1.15,2013-07-10 22:39:00,
2013-07-10 16:40:00,86.9,49.9,29.67,ESE,110,8.0,10.0,28,0.00,,,0.00,Wunderground v.1.15,2013-07-10 22:40:00,
2013-07-10 16:43:00,86.9,49.9,29.67,SE,144,10.0,11.0,28,0.00,,,0.00,Wunderground v.1.15,2013-07-10 22:43:00,
2013-07-10 16:44:00,86.9,50.8,29.67,SE,133,9.0,11.0,29,0.00,,,0.00,Wunderground v.1.15,2013-07-10 22:44:00,
2013-07-10 16:45:00,86.8,50.7,29.67,North,360,8.0,11.0,29,0.00,,,0.00,Wunderground v.1.15,2013-07-10 22:45:00,
2013-07-10 16:48:00,86.6,50.6,29.68,SSE,147,5.0,11.0,29,0.00,,,0.00,Wunderground v.1.15,2013-07-10 22:48:00,
2013-07-10 16:49:00,86.6,51.5,29.68,SE,146,3.0,11.0,30,0.00,,,0.00,Wunderground v.1.15,2013-07-10 22:49:00,
2013-07-10 16:50:00,86.6,51.5,29.68,SE,144,0.0,7.0,30,0.00,,,0.00,Wunderground v.1.15,2013-07-10 22:50:00,
2013-07-10 16:53:00,86.6,51.5,29.67,SE,138,6.0,11.0,30,0.00,,,0.00,Wunderground v.1.15,2013-07-10 22:53:00,
2013-07-10 16:55:00,86.5,53.1,29.67,North,360,7.0,13.0,32,0.00,,,0.00,Wunderground v.1.15,2013-07-10 22:55:00,
2013-07-10 16:59:00,86.3,53.0,29.67,ESE,122,4.0,13.0,32,0.00,,,0.00,Wunderground v.1.15,2013-07-10 22:59:00,
2013-07-10 17:00:00,86.3,53.8,29.67,SSE,148,6.0,6.0,33,0.00,,,0.00,Wunderground v.1.15,2013-07-10 23:00:00,
2013-07-10 17:04:00,86.0,53.5,29.67,ESE,117,3.0,12.0,33,0.00,,,0.00,Wunderground v.1.15,2013-07-10 23:04:00,
2013-07-10 17:05:00,86.1,54.5,29.67,North,360,7.0,12.0,34,0.00,,,0.00,Wunderground v.1.15,2013-07-10 23:05:00,
2013-07-10 17:06:00,86.3,54.6,29.67,SSE,156,5.0,12.0,34,0.00,,,0.00,Wunderground v.1.15,2013-07-10 23:06:00,
2013-07-10 17:09:00,86.3,54.6,29.67,North,360,10.0,12.0,34,0.00,,,0.00,Wunderground v.1.15,2013-07-10 23:09:00,
2013-07-10 17:10:00,86.1,54.5,29.67,SE,145,6.0,9.0,34,0.00,,,0.00,Wunderground v.1.15,2013-07-10 23:10:00,
2013-07-10 17:11:00,86.0,54.4,29.67,SE,136,4.0,10.0,34,0.00,,,0.00,Wunderground v.1.15,2013-07-10 23:11:00,
2013-07-10 17:14:00,85.7,54.1,29.67,North,360,1.0,12.0,34,0.00,,,0.00,Wunderground v.1.15,2013-07-10 23:14:00,
2013-07-10 17:15:00,85.8,54.2,29.67,North,360,8.0,12.0,34,0.00,,,0.00,Wunderground v.1.15,2013-07-10 23:15:00,
2013-07-10 17:16:00,85.7,54.1,29.67,SE,140,7.0,12.0,34,0.00,,,0.00,Wunderground v.1.15,2013-07-10 23:16:00,
2013-07-10 17:19:00,85.6,54.8,29.67,ESE,109,3.0,14.0,35,0.00,,,0.00,Wunderground v.1.15,2013-07-10 23:19:00,
2013-07-10 17:21:00,85.5,54.7,29.67,SE,126,5.0,8.0,35,0.00,,,0.00,Wunderground v.1.15,2013-07-10 23:21:00,
2013-07-10 17:24:00,85.3,55.3,29.66,North,360,6.0,10.0,36,0.00,,,0.00,Wunderground v.1.15,2013-07-10 23:24:00,
2013-07-10 17:26:00,85.3,55.3,29.66,SE,140,6.0,11.0,36,0.00,,,0.00,Wunderground v.1.15,2013-07-10 23:26:00,
2013-07-10 17:27:00,85.3,55.3,29.66,North,360,8.0,11.0,36,0.00,,,0.00,Wunderground v.1.15,2013-07-10 23:27:00,
2013-07-10 17:30:00,85.1,55.1,29.66,ESE,105,9.0,10.0,36,0.00,,,0.00,Wunderground v.1.15,2013-07-10 23:30:00,
2013-07-10 17:31:00,85.0,55.1,29.66,SE,126,1.0,10.0,36,0.00,,,0.00,Wunderground v.1.15,2013-07-10 23:31:00,
2013-07-10 17:32:00,85.0,55.8,29.66,North,360,5.0,10.0,37,0.00,,,0.00,Wunderground v.1.15,2013-07-10 23:32:00,
2013-07-10 17:35:00,84.8,55.6,29.66,North,360,5.0,10.0,37,0.00,,,0.00,Wunderground v.1.15,2013-07-10 23:35:00,
2013-07-10 17:36:00,84.8,55.6,29.66,North,360,0.0,10.0,37,0.00,,,0.00,Wunderground v.1.15,2013-07-10 23:36:00,
2013-07-10 17:37:00,84.8,55.6,29.66,North,360,4.0,10.0,37,0.00,,,0.00,Wunderground v.1.15,2013-07-10 23:37:00,
2013-07-10 17:40:00,85.0,55.8,29.66,ESE,118,3.0,7.0,37,0.00,,,0.00,Wunderground v.1.15,2013-07-10 23:40:00,
2013-07-10 17:41:00,85.1,55.9,29.66,ESE,117,7.0,10.0,37,0.00,,,0.00,Wunderground v.1.15,2013-07-10 23:41:00,
2013-07-10 17:42:00,85.1,55.9,29.66,North,360,8.0,10.0,37,0.00,,,0.00,Wunderground v.1.15,2013-07-10 23:42:00,
2013-07-10 17:43:00,85.1,55.9,29.66,ESE,115,7.0,10.0,37,0.00,,,0.00,Wunderground v.1.15,2013-07-10 23:43:00,
2013-07-10 17:45:00,85.2,56.0,29.66,East,100,8.0,10.0,37,0.00,,,0.00,Wunderground v.1.15,2013-07-10 23:45:00,
2013-07-10 17:47:00,85.2,56.0,29.66,North,360,7.0,10.0,37,0.00,,,0.00,Wunderground v.1.15,2013-07-10 23:47:00,
2013-07-10 17:48:00,85.2,56.0,29.66,East,101,2.0,10.0,37,0.00,,,0.00,Wunderground v.1.15,2013-07-10 23:48:00,
2013-07-10 17:50:00,85.4,56.2,29.66,ESE,117,5.0,7.0,37,0.00,,,0.00,Wunderground v.1.15,2013-07-10 23:50:00,
2013-07-10 17:52:00,85.5,56.3,29.66,ESE,116,1.0,8.0,37,0.00,,,0.00,Wunderground v.1.15,2013-07-10 23:52:00,
2013-07-10 17:53:00,85.6,56.3,29.66,North,360,10.0,10.0,37,0.00,,,0.00,Wunderground v.1.15,2013-07-10 23:53:00,
2013-07-10 17:56:00,85.6,55.6,29.66,SSE,148,4.0,10.0,36,0.00,,,0.00,Wunderground v.1.15,2013-07-10 23:56:00,
2013-07-10 17:57:00,85.6,56.3,29.66,North,360,1.0,10.0,37,0.00,,,0.00,Wunderground v.1.15,2013-07-10 23:57:00,
2013-07-10 17:58:00,85.6,55.6,29.66,SE,126,7.0,10.0,36,0.00,,,0.00,Wunderground v.1.15,2013-07-10 23:58:00,
2013-07-10 18:01:00,85.6,55.6,29.66,SSE,164,5.0,10.0,36,0.00,,,0.00,Wunderground v.1.15,2013-07-11 00:01:00,
2013-07-10 18:02:00,85.6,55.6,29.66,North,360,8.0,10.0,36,0.00,,,0.00,Wunderground v.1.15,2013-07-11 00:02:00,
2013-07-10 18:03:00,85.6,55.6,29.66,SE,139,9.0,11.0,36,0.00,,,0.00,Wunderground v.1.15,2013-07-11 00:03:00,
2013-07-10 18:06:00,85.5,55.5,29.66,North,360,8.0,11.0,36,0.00,,,0.00,Wunderground v.1.15,2013-07-11 00:06:00,
2013-07-10 18:07:00,85.4,54.6,29.66,SE,134,4.0,11.0,35,0.00,,,0.00,Wunderground v.1.15,2013-07-11 00:07:00,
2013-07-10 18:08:00,85.4,54.6,29.66,SE,127,8.0,11.0,35,0.00,,,0.00,Wunderground v.1.15,2013-07-11 00:08:00,
2013-07-10 18:11:00,85.4,54.6,29.66,North,360,3.0,8.0,35,0.00,,,0.00,Wunderground v.1.15,2013-07-11 00:11:00,
2013-07-10 18:13:00,85.4,54.6,29.65,North,360,5.0,10.0,35,0.00,,,0.00,Wunderground v.1.15,2013-07-11 00:13:00,
2013-07-10 18:14:00,85.4,54.6,29.65,North,360,8.0,10.0,35,0.00,,,0.00,Wunderground v.1.15,2013-07-11 00:14:00,
2013-07-10 18:16:00,85.3,54.5,29.65,SE,139,4.0,10.0,35,0.00,,,0.00,Wunderground v.1.15,2013-07-11 00:16:00,
2013-07-10 18:18:00,85.3,54.5,29.65,SE,132,5.0,10.0,35,0.00,,,0.00,Wunderground v.1.15,2013-07-11 00:18:00,
2013-07-10 18:19:00,85.3,54.5,29.65,North,360,8.0,10.0,35,0.00,,,0.00,Wunderground v.1.15,2013-07-11 00:19:00,
2013-07-10 18:21:00,85.2,53.7,29.65,ESE,121,5.0,9.0,34,0.00,,,0.00,Wunderground v.1.15,2013-07-11 00:21:00,
2013-07-10 18:23:00,85.2,54.5,29.65,North,360,8.0,11.0,35,0.00,,,0.00,Wunderground v.1.15,2013-07-11 00:23:00,
2013-07-10 18:24:00,85.2,54.5,29.65,North,360,5.0,11.0,35,0.00,,,0.00,Wunderground v.1.15,2013-07-11 00:24:00,
2013-07-10 18:26:00,85.1,54.4,29.65,North,360,11.0,11.0,35,0.00,,,0.00,Wunderground v.1.15,2013-07-11 00:26:00,
2013-07-10 18:29:00,84.9,55.0,29.65,SE,126,6.0,14.0,36,0.00,,,0.00,Wunderground v.1.15,2013-07-11 00:29:00,
2013-07-10 18:31:00,84.7,54.8,29.65,North,360,12.0,12.0,36,0.00,,,0.00,Wunderground v.1.15,2013-07-11 00:31:00,
2013-07-10 18:34:00,84.5,55.4,29.65,ESE,118,3.0,13.0,37,0.00,,,0.00,Wunderground v.1.15,2013-07-11 00:34:00,
2013-07-10 18:36:00,84.3,55.2,29.65,North,360,4.0,13.0,37,0.00,,,0.00,Wunderground v.1.15,2013-07-11 00:36:00,
2013-07-10 18:39:00,84.2,55.1,29.65,SSE,150,5.0,13.0,37,0.00,,,0.00,Wunderground v.1.15,2013-07-11 00:39:00,
2013-07-10 18:40:00,84.2,55.1,29.65,SSE,156,7.0,7.0,37,0.00,,,0.00,Wunderground v.1.15,2013-07-11 00:40:00,
2013-07-10 18:42:00,84.1,55.0,29.65,North,360,4.0,8.0,37,0.00,,,0.00,Wunderground v.1.15,2013-07-11 00:42:00,
2013-07-10 18:44:00,84.1,55.0,29.65,SE,138,9.0,9.0,37,0.00,,,0.00,Wunderground v.1.15,2013-07-11 00:44:00,
2013-07-10 18:45:00,84.1,55.0,29.65,North,360,5.0,9.0,37,0.00,,,0.00,Wunderground v.1.15,2013-07-11 00:45:00,
2013-07-10 18:47:00,84.0,54.9,29.65,SE,129,5.0,9.0,37,0.00,,,0.00,Wunderground v.1.15,2013-07-11 00:47:00,
2013-07-10 18:49:00,84.0,54.9,29.64,North,360,2.0,9.0,37,0.00,,,0.00,Wunderground v.1.15,2013-07-11 00:49:00,
2013-07-10 18:50:00,84.0,54.9,29.64,SE,143,3.0,5.0,37,0.00,,,0.00,Wunderground v.1.15,2013-07-11 00:50:00,
2013-07-10 18:51:00,84.0,54.9,29.64,SE,144,5.0,5.0,37,0.00,,,0.00,Wunderground v.1.15,2013-07-11 00:51:00,
2013-07-10 18:52:00,84.0,54.9,29.64,North,360,8.0,8.0,37,0.00,,,0.00,Wunderground v.1.15,2013-07-11 00:52:00,
2013-07-10 18:54:00,83.9,54.8,29.64,SE,144,4.0,8.0,37,0.00,,,0.00,Wunderground v.1.15,2013-07-11 00:54:00,
2013-07-10 18:55:00,83.8,55.5,29.64,North,360,5.0,8.0,38,0.00,,,0.00,Wunderground v.1.15,2013-07-11 00:55:00,
2013-07-10 18:56:00,83.8,55.5,29.64,North,360,3.0,8.0,38,0.00,,,0.00,Wunderground v.1.15,2013-07-11 00:56:00,
2013-07-10 18:57:00,83.8,55.5,29.64,North,360,8.0,8.0,38,0.00,,,0.00,Wunderground v.1.15,2013-07-11 00:57:00,
2013-07-10 19:00:00,83.6,55.3,29.64,SE,141,4.0,6.0,38,0.00,,,0.00,Wunderground v.1.15,2013-07-11 01:00:00,
2013-07-10 19:01:00,83.6,55.3,29.64,SE,138,4.0,7.0,38,0.00,,,0.00,Wunderground v.1.15,2013-07-11 01:01:00,
2013-07-10 19:02:00,83.4,55.8,29.64,SE,141,6.0,8.0,39,0.00,,,0.00,Wunderground v.1.15,2013-07-11 01:02:00,
2013-07-10 19:05:00,83.2,55.7,29.64,SE,141,6.0,8.0,39,0.00,,,0.00,Wunderground v.1.15,2013-07-11 01:05:00,
2013-07-10 19:06:00,83.2,55.7,29.64,SSE,155,6.0,8.0,39,0.00,,,0.00,Wunderground v.1.15,2013-07-11 01:06:00,
2013-07-10 19:07:00,83.1,55.6,29.64,North,360,2.0,8.0,39,0.00,,,0.00,Wunderground v.1.15,2013-07-11 01:07:00,
2013-07-10 19:11:00,82.9,55.4,29.64,SE,139,6.0,10.0,39,0.00,,,0.00,Wunderground v.1.15,2013-07-11 01:11:00,
2013-07-10 19:12:00,82.8,56.0,29.64,North,360,8.0,10.0,40,0.00,,,0.00,Wunderground v.1.15,2013-07-11 01:12:00,
2013-07-10 19:13:00,82.8,56.0,29.64,ESE,118,3.0,10.0,40,0.00,,,0.00,Wunderground v.1.15,2013-07-11 01:13:00,
2013-07-10 19:16:00,82.6,55.8,29.64,North,360,6.0,11.0,40,0.00,,,0.00,Wunderground v.1.15,2013-07-11 01:16:00,
2013-07-10 19:17:00,82.5,55.7,29.65,North,360,0.0,11.0,40,0.00,,,0.00,Wunderground v.1.15,2013-07-11 01:17:00,
2013-07-10 19:18:00,82.5,55.7,29.64,North,360,7.0,11.0,40,0.00,,,0.00,Wunderground v.1.15,2013-07-11 01:18:00,
2013-07-10 19:21:00,82.2,55.5,29.65,North,360,3.0,5.0,40,0.00,,,0.00,Wunderground v.1.15,2013-07-11 01:21:00,
2013-07-10 19:22:00,82.2,55.5,29.65,SSE,152,5.0,6.0,40,0.00,,,0.00,Wunderground v.1.15,2013-07-11 01:22:00,
2013-07-10 19:23:00,82.1,55.4,29.65,North,360,4.0,7.0,40,0.00,,,0.00,Wunderground v.1.15,2013-07-11 01:23:00,
2013-07-10 19:26:00,81.9,55.9,29.64,North,360,2.0,7.0,41,0.00,,,0.00,Wunderground v.1.15,2013-07-11 01:26:00,
2013-07-10 19:27:00,81.8,55.8,29.64,North,360,2.0,7.0,41,0.00,,,0.00,Wunderground v.1.15,2013-07-11 01:27:00,
2013-07-10 19:28:00,81.7,55.7,29.64,North,360,5.0,9.0,41,0.00,,,0.00,Wunderground v.1.15,2013-07-11 01:28:00,
2013-07-10 19:31:00,81.5,56.2,29.64,North,360,2.0,6.0,42,0.00,,,0.00,Wunderground v.1.15,2013-07-11 01:31:00,
2013-07-10 19:32:00,81.4,56.1,29.64,North,360,4.0,6.0,42,0.00,,,0.00,Wunderground v.1.15,2013-07-11 01:32:00,
2013-07-10 19:33:00,81.4,56.1,29.64,SSE,153,4.0,6.0,42,0.00,,,0.00,Wunderground v.1.15,2013-07-11 01:33:00,
2013-07-10 19:34:00,81.4,56.1,29.64,North,360,2.0,6.0,42,0.00,,,0.00,Wunderground v.1.15,2013-07-11 01:34:00,
2013-07-10 19:36:00,81.2,55.9,29.64,North,360,6.0,6.0,42,0.00,,,0.00,Wunderground v.1.15,2013-07-11 01:36:00,
2013-07-10 19:37:00,81.1,55.8,29.64,SSE,159,4.0,7.0,42,0.00,,,0.00,Wunderground v.1.15,2013-07-11 01:37:00,
2013-07-10 19:38:00,81.0,55.7,29.64,SSE,159,2.0,7.0,42,0.00,,,0.00,Wunderground v.1.15,2013-07-11 01:38:00,
2013-07-10 19:39:00,81.0,55.7,29.64,SSE,160,0.0,7.0,42,0.00,,,0.00,Wunderground v.1.15,2013-07-11 01:39:00,
2013-07-10 19:42:00,80.7,56.1,29.64,SSE,159,4.0,5.0,43,0.00,,,0.00,Wunderground v.1.15,2013-07-11 01:42:00,
2013-07-10 19:44:00,80.6,56.0,29.64,SSE,159,0.0,5.0,43,0.00,,,0.00,Wunderground v.1.15,2013-07-11 01:44:00,
2013-07-10 19:47:00,80.3,55.8,29.64,North,360,5.0,5.0,43,0.00,,,0.00,Wunderground v.1.15,2013-07-11 01:47:00,
2013-07-10 19:48:00,80.3,55.8,29.64,North,360,3.0,5.0,43,0.00,,,0.00,Wunderground v.1.15,2013-07-11 01:48:00,
2013-07-10 19:49:00,80.2,56.3,29.64,SSE,159,4.0,5.0,44,0.00,,,0.00,Wunderground v.1.15,2013-07-11 01:49:00,
2013-07-10 19:53:00,79.8,55.9,29.65,SSE,159,0.0,5.0,44,0.00,,,0.00,Wunderground v.1.15,2013-07-11 01:53:00,
2013-07-10 19:54:00,79.8,55.9,29.65,SSE,159,3.0,5.0,44,0.00,,,0.00,Wunderground v.1.15,2013-07-11 01:54:00,
2013-07-10 19:55:00,79.7,55.9,29.65,North,360,4.0,5.0,44,0.00,,,0.00,Wunderground v.1.15,2013-07-11 01:55:00,
2013-07-10 19:58:00,79.4,56.2,29.65,North,360,2.0,6.0,45,0.00,,,0.00,Wunderground v.1.15,2013-07-11 01:58:00,
2013-07-10 19:59:00,79.4,56.2,29.65,North,360,3.0,6.0,45,0.00,,,0.00,Wunderground v.1.15,2013-07-11 01:59:00,
2013-07-10 20:00:00,79.3,56.1,29.65,SSE,157,5.0,5.0,45,0.00,,,0.00,Wunderground v.1.15,2013-07-11 02:00:00,
2013-07-10 20:03:00,78.9,55.8,29.65,North,360,5.0,7.0,45,0.00,,,0.00,Wunderground v.1.15,2013-07-11 02:03:00,
2013-07-10 20:04:00,78.7,55.6,29.65,North,360,5.0,7.0,45,0.00,,,0.00,Wunderground v.1.15,2013-07-11 02:04:00,
2013-07-10 20:05:00,78.7,56.2,29.65,SE,144,4.0,7.0,46,0.00,,,0.00,Wunderground v.1.15,2013-07-11 02:05:00,
2013-07-10 20:08:00,78.4,55.9,29.65,SE,146,3.0,7.0,46,0.00,,,0.00,Wunderground v.1.15,2013-07-11 02:08:00,
2013-07-10 20:09:00,78.2,55.7,29.65,SSE,148,4.0,7.0,46,0.00,,,0.00,Wunderground v.1.15,2013-07-11 02:09:00,
2013-07-10 20:10:00,78.1,55.6,29.65,SSE,156,4.0,5.0,46,0.00,,,0.00,Wunderground v.1.15,2013-07-11 02:10:00,
2013-07-10 20:13:00,77.7,55.9,29.65,North,360,1.0,5.0,47,0.00,,,0.00,Wunderground v.1.15,2013-07-11 02:13:00,
2013-07-10 20:14:00,77.7,55.9,29.65,SSE,156,1.0,5.0,47,0.00,,,0.00,Wunderground v.1.15,2013-07-11 02:14:00,
2013-07-10 20:15:00,77.6,55.8,29.65,SSE,156,4.0,5.0,47,0.00,,,0.00,Wunderground v.1.15,2013-07-11 02:15:00,
2013-07-10 20:19:00,77.3,56.1,29.66,North,360,4.0,6.0,48,0.00,,,0.00,Wunderground v.1.15,2013-07-11 02:19:00,
2013-07-10 20:20:00,77.1,55.9,29.66,North,360,1.0,3.0,48,0.00,,,0.00,Wunderground v.1.15,2013-07-11 02:20:00,
2013-07-10 20:24:00,76.8,56.2,29.66,SSE,153,0.0,5.0,49,0.00,,,0.00,Wunderground v.1.15,2013-07-11 02:24:00,
2013-07-10 20:25:00,76.7,56.1,29.66,North,360,1.0,5.0,49,0.00,,,0.00,Wunderground v.1.15,2013-07-11 02:25:00,
2013-07-10 20:26:00,76.6,56.0,29.66,North,360,0.0,5.0,49,0.00,,,0.00,Wunderground v.1.15,2013-07-11 02:26:00,
2013-07-10 20:29:00,76.4,56.4,29.66,North,360,4.0,5.0,50,0.00,,,0.00,Wunderground v.1.15,2013-07-11 02:29:00,
2013-07-10 20:30:00,76.2,56.2,29.66,SSE,153,4.0,4.0,50,0.00,,,0.00,Wunderground v.1.15,2013-07-11 02:30:00,
2013-07-10 20:31:00,76.2,56.2,29.66,SSE,152,2.0,4.0,50,0.00,,,0.00,Wunderground v.1.15,2013-07-11 02:31:00,
2013-07-10 20:32:00,76.1,56.1,29.66,North,360,5.0,6.0,50,0.00,,,0.00,Wunderground v.1.15,2013-07-11 02:32:00,
2013-07-10 20:34:00,76.0,56.0,29.66,SSE,159,4.0,7.0,50,0.00,,,0.00,Wunderground v.1.15,2013-07-11 02:34:00,
2013-07-10 20:35:00,75.9,55.9,29.66,SSE,161,1.0,7.0,50,0.00,,,0.00,Wunderground v.1.15,2013-07-11 02:35:00,
2013-07-10 20:36:00,75.9,55.9,29.66,SSE,161,2.0,7.0,50,0.00,,,0.00,Wunderground v.1.15,2013-07-11 02:36:00,
2013-07-10 20:37:00,75.8,55.8,29.66,North,360,2.0,7.0,50,0.00,,,0.00,Wunderground v.1.15,2013-07-11 02:37:00,
2013-07-10 20:39:00,75.8,55.8,29.66,SSE,156,4.0,7.0,50,0.00,,,0.00,Wunderground v.1.15,2013-07-11 02:39:00,
2013-07-10 20:41:00,75.9,55.9,29.66,North,360,2.0,6.0,50,0.00,,,0.00,Wunderground v.1.15,2013-07-11 02:41:00,
2013-07-10 20:42:00,75.9,55.9,29.66,SSE,159,5.0,6.0,50,0.00,,,0.00,Wunderground v.1.15,2013-07-11 02:42:00,
2013-07-10 20:45:00,76.0,55.5,29.66,SSE,157,4.0,7.0,49,0.00,,,0.00,Wunderground v.1.15,2013-07-11 02:45:00,
2013-07-10 20:46:00,76.0,55.5,29.66,North,360,2.0,7.0,49,0.00,,,0.00,Wunderground v.1.15,2013-07-11 02:46:00,
2013-07-10 20:47:00,76.1,55.5,29.66,SSE,148,2.0,7.0,49,0.00,,,0.00,Wunderground v.1.15,2013-07-11 02:47:00,
2013-07-10 20:50:00,76.1,55.5,29.66,SSE,148,3.0,5.0,49,0.00,,,0.00,Wunderground v.1.15,2013-07-11 02:50:00,
2013-07-10 20:51:00,76.1,55.5,29.66,SE,146,3.0,5.0,49,0.00,,,0.00,Wunderground v.1.15,2013-07-11 02:51:00,
2013-07-10 20:52:00,76.1,55.5,29.66,North,360,2.0,5.0,49,0.00,,,0.00,Wunderground v.1.15,2013-07-11 02:52:00,
2013-07-10 20:55:00,76.3,55.7,29.66,South,169,5.0,6.0,49,0.00,,,0.00,Wunderground v.1.15,2013-07-11 02:55:00,
2013-07-10 20:56:00,76.4,55.8,29.66,South,169,5.0,7.0,49,0.00,,,0.00,Wunderground v.1.15,2013-07-11 02:56:00,
2013-07-10 20:57:00,76.4,55.8,29.66,North,360,5.0,7.0,49,0.00,,,0.00,Wunderground v.1.15,2013-07-11 02:57:00,
2013-07-10 21:00:00,76.7,55.5,29.66,SSE,163,0.0,4.0,48,0.00,,,0.00,Wunderground v.1.15,2013-07-11 03:00:00,
2013-07-10 21:02:00,76.7,55.5,29.66,North,360,3.0,4.0,48,0.00,,,0.00,Wunderground v.1.15,2013-07-11 03:02:00,
2013-07-10 21:05:00,76.7,55.5,29.66,SSE,161,4.0,5.0,48,0.00,,,0.00,Wunderground v.1.15,2013-07-11 03:05:00,
2013-07-10 21:07:00,76.8,55.0,29.66,North,360,2.0,6.0,47,0.00,,,0.00,Wunderground v.1.15,2013-07-11 03:07:00,
2013-07-10 21:08:00,76.8,55.0,29.66,SSE,167,0.0,6.0,47,0.00,,,0.00,Wunderground v.1.15,2013-07-11 03:08:00,
2013-07-10 21:10:00,76.9,54.5,29.66,South,180,3.0,3.0,46,0.00,,,0.00,Wunderground v.1.15,2013-07-11 03:10:00,
2013-07-10 21:12:00,77.0,54.6,29.66,North,360,0.0,4.0,46,0.00,,,0.00,Wunderground v.1.15,2013-07-11 03:12:00,
2013-07-10 21:13:00,77.0,54.6,29.66,South,181,3.0,4.0,46,0.00,,,0.00,Wunderground v.1.15,2013-07-11 03:13:00,
2013-07-10 21:16:00,77.1,54.1,29.66,North,360,2.0,5.0,45,0.00,,,0.00,Wunderground v.1.15,2013-07-11 03:16:00,
2013-07-10 21:17:00,77.2,54.2,29.66,South,180,0.0,5.0,45,0.00,,,0.00,Wunderground v.1.15,2013-07-11 03:17:00,
2013-07-10 21:18:00,77.2,54.2,29.66,South,180,0.0,5.0,45,0.00,,,0.00,Wunderground v.1.15,2013-07-11 03:18:00,
2013-07-10 21:21:00,77.3,54.9,29.67,North,360,0.0,1.0,46,0.00,,,0.00,Wunderground v.1.15,2013-07-11 03:21:00,
2013-07-10 21:22:00,77.3,54.3,29.67,North,360,0.0,1.0,45,0.00,,,0.00,Wunderground v.1.15,2013-07-11 03:22:00,
2013-07-10 21:23:00,77.3,54.3,29.67,North,360,0.0,2.0,45,0.00,,,0.00,Wunderground v.1.15,2013-07-11 03:23:00,
2013-07-10 21:24:00,77.3,54.3,29.67,North,360,4.0,4.0,45,0.00,,,0.00,Wunderground v.1.15,2013-07-11 03:24:00,
2013-07-10 21:26:00,77.3,54.3,29.67,South,179,0.0,6.0,45,0.00,,,0.00,Wunderground v.1.15,2013-07-11 03:26:00,
2013-07-10 21:27:00,77.3,54.3,29.67,South,179,0.0,6.0,45,0.00,,,0.00,Wunderground v.1.15,2013-07-11 03:27:00,
2013-07-10 21:28:00,77.3,54.3,29.67,South,179,0.0,6.0,45,0.00,,,0.00,Wunderground v.1.15,2013-07-11 03:28:00,
2013-07-10 21:29:00,77.3,54.3,29.67,South,179,0.0,6.0,45,0.00,,,0.00,Wunderground v.1.15,2013-07-11 03:29:00,
2013-07-10 21:30:00,77.3,54.3,29.67,South,179,2.0,2.0,45,0.00,,,0.00,Wunderground v.1.15,2013-07-11 03:30:00,
2013-07-10 21:32:00,77.3,54.3,29.67,South,178,4.0,5.0,45,0.00,,,0.00,Wunderground v.1.15,2013-07-11 03:32:00,
2013-07-10 21:33:00,77.3,54.3,29.67,South,178,3.0,5.0,45,0.00,,,0.00,Wunderground v.1.15,2013-07-11 03:33:00,
2013-07-10 21:34:00,77.3,54.3,29.67,South,178,2.0,5.0,45,0.00,,,0.00,Wunderground v.1.15,2013-07-11 03:34:00,
2013-07-10 21:35:00,77.3,54.3,29.67,South,178,2.0,5.0,45,0.00,,,0.00,Wunderground v.1.15,2013-07-11 03:35:00,
2013-07-10 21:37:00,77.2,54.2,29.67,South,178,0.0,5.0,45,0.00,,,0.00,Wunderground v.1.15,2013-07-11 03:37:00,
2013-07-10 21:38:00,77.2,54.2,29.67,South,178,0.0,5.0,45,0.00,,,0.00,Wunderground v.1.15,2013-07-11 03:38:00,
2013-07-10 21:39:00,77.2,54.8,29.67,South,178,1.0,5.0,46,0.00,,,0.00,Wunderground v.1.15,2013-07-11 03:39:00,
2013-07-10 21:40:00,77.2,55.4,29.67,South,178,0.0,3.0,47,0.00,,,0.00,Wunderground v.1.15,2013-07-11 03:40:00,
2013-07-10 21:42:00,77.1,55.3,29.68,SSE,161,6.0,8.0,47,0.00,,,0.00,Wunderground v.1.15,2013-07-11 03:42:00,
2013-07-10 21:43:00,77.1,54.7,29.68,SE,126,11.0,11.0,46,0.00,,,0.00,Wunderground v.1.15,2013-07-11 03:43:00,
2013-07-10 21:44:00,76.9,55.7,29.68,North,360,3.0,11.0,48,0.00,,,0.00,Wunderground v.1.15,2013-07-11 03:44:00,
2013-07-10 21:45:00,76.8,56.2,29.68,SE,144,10.0,17.0,49,0.00,,,0.00,Wunderground v.1.15,2013-07-11 03:45:00,
2013-07-10 21:47:00,76.5,56.5,29.68,North,360,5.0,17.0,50,0.00,,,0.00,Wunderground v.1.15,2013-07-11 03:47:00,
2013-07-10 21:48:00,76.3,56.8,29.68,North,360,6.0,17.0,51,0.00,,,0.00,Wunderground v.1.15,2013-07-11 03:48:00,
2013-07-10 21:49:00,76.0,56.6,29.68,SSE,163,6.0,17.0,51,0.00,,,0.00,Wunderground v.1.15,2013-07-11 03:49:00,
2013-07-10 21:52:00,75.6,56.7,29.67,North,360,7.0,10.0,52,0.00,,,0.00,Wunderground v.1.15,2013-07-11 03:52:00,
2013-07-10 21:53:00,75.3,57.0,29.67,North,360,6.0,10.0,53,0.00,,,0.00,Wunderground v.1.15,2013-07-11 03:53:00,
2013-07-10 21:54:00,75.0,56.7,29.67,North,360,5.0,10.0,53,0.00,,,0.00,Wunderground v.1.15,2013-07-11 03:54:00,
2013-07-10 21:57:00,74.5,56.8,29.67,North,360,3.0,10.0,54,0.00,,,0.00,Wunderground v.1.15,2013-07-11 03:57:00,
2013-07-10 21:58:00,74.4,56.7,29.67,SSE,161,5.0,10.0,54,0.00,,,0.00,Wunderground v.1.15,2013-07-11 03:58:00,
2013-07-10 22:00:00,74.1,56.9,29.67,North,360,5.0,7.0,55,0.00,,,0.00,Wunderground v.1.15,2013-07-11 04:00:00,
2013-07-10 22:01:00,74.0,56.8,29.67,SSE,161,2.0,7.0,55,0.00,,,0.00,Wunderground v.1.15,2013-07-11 04:01:00,
2013-07-10 22:06:00,73.4,56.7,29.67,North,360,5.0,7.0,56,0.00,,,0.00,Wunderground v.1.15,2013-07-11 04:06:00,
2013-07-10 22:07:00,73.3,56.7,29.67,SSE,155,5.0,7.0,56,0.00,,,0.00,Wunderground v.1.15,2013-07-11 04:07:00,
2013-07-10 22:11:00,73.1,56.5,29.67,North,360,2.0,7.0,56,0.00,,,0.00,Wunderground v.1.15,2013-07-11 04:11:00,
2013-07-10 22:12:00,73.0,56.4,29.67,SSE,149,0.0,7.0,56,0.00,,,0.00,Wunderground v.1.15,2013-07-11 04:12:00,
2013-07-10 22:16:00,72.8,56.2,29.67,SSE,149,0.0,7.0,56,0.00,,,0.00,Wunderground v.1.15,2013-07-11 04:16:00,
2013-07-10 22:17:00,72.8,56.2,29.67,SSE,150,1.0,7.0,56,0.00,,,0.00,Wunderground v.1.15,2013-07-11 04:17:00,
2013-07-10 22:21:00,72.6,56.5,29.68,North,360,2.0,4.0,57,0.00,,,0.00,Wunderground v.1.15,2013-07-11 04:21:00,
2013-07-10 22:22:00,72.5,56.4,29.68,North,360,0.0,4.0,57,0.00,,,0.00,Wunderground v.1.15,2013-07-11 04:22:00,
2013-07-10 22:23:00,72.5,56.4,29.67,North,360,0.0,4.0,57,0.00,,,0.00,Wunderground v.1.15,2013-07-11 04:23:00,
2013-07-10 22:26:00,72.3,56.2,29.67,SSE,149,3.0,4.0,57,0.00,,,0.00,Wunderground v.1.15,2013-07-11 04:26:00,
2013-07-10 22:27:00,72.3,56.2,29.67,SSE,150,4.0,4.0,57,0.00,,,0.00,Wunderground v.1.15,2013-07-11 04:27:00,
2013-07-10 22:28:00,72.2,56.1,29.67,SSE,156,1.0,5.0,57,0.00,,,0.00,Wunderground v.1.15,2013-07-11 04:28:00,
2013-07-10 22:31:00,72.1,56.0,29.67,North,360,3.0,3.0,57,0.00,,,0.00,Wunderground v.1.15,2013-07-11 04:31:00,
2013-07-10 22:32:00,72.1,56.0,29.67,North,360,5.0,6.0,57,0.00,,,0.00,Wunderground v.1.15,2013-07-11 04:32:00,
2013-07-10 22:33:00,72.0,56.4,29.68,SSE,150,3.0,6.0,58,0.00,,,0.00,Wunderground v.1.15,2013-07-11 04:33:00,
2013-07-10 22:36:00,71.7,56.1,29.68,SSE,159,4.0,8.0,58,0.00,,,0.00,Wunderground v.1.15,2013-07-11 04:36:00,
2013-07-10 22:37:00,71.7,56.1,29.68,North,360,5.0,8.0,58,0.00,,,0.00,Wunderground v.1.15,2013-07-11 04:37:00,
2013-07-10 22:38:00,71.7,56.1,29.68,SSE,167,3.0,8.0,58,0.00,,,0.00,Wunderground v.1.15,2013-07-11 04:38:00,
2013-07-10 22:39:00,71.7,56.1,29.68,SSE,167,6.0,8.0,58,0.00,,,0.00,Wunderground v.1.15,2013-07-11 04:39:00,
2013-07-10 22:41:00,71.5,56.4,29.67,North,360,8.0,8.0,59,0.00,,,0.00,Wunderground v.1.15,2013-07-11 04:41:00,
2013-07-10 22:42:00,71.4,56.3,29.67,North,360,5.0,8.0,59,0.00,,,0.00,Wunderground v.1.15,2013-07-11 04:42:00,
2013-07-10 22:43:00,71.4,56.3,29.67,North,360,6.0,8.0,59,0.00,,,0.00,Wunderground v.1.15,2013-07-11 04:43:00,
2013-07-10 22:44:00,71.3,56.2,29.67,North,360,7.0,9.0,59,0.00,,,0.00,Wunderground v.1.15,2013-07-11 04:44:00,
2013-07-10 22:46:00,71.2,56.1,29.67,SSE,161,5.0,9.0,59,0.00,,,0.00,Wunderground v.1.15,2013-07-11 04:46:00,
2013-07-10 22:47:00,71.2,56.1,29.67,SSE,159,4.0,9.0,59,0.00,,,0.00,Wunderground v.1.15,2013-07-11 04:47:00,
2013-07-10 22:48:00,71.1,56.0,29.67,SSE,159,5.0,9.0,59,0.00,,,0.00,Wunderground v.1.15,2013-07-11 04:48:00,
2013-07-10 22:49:00,71.1,56.0,29.67,North,360,3.0,9.0,59,0.00,,,0.00,Wunderground v.1.15,2013-07-11 04:49:00,
2013-07-10 22:51:00,70.9,56.3,29.68,North,360,5.0,7.0,60,0.00,,,0.00,Wunderground v.1.15,2013-07-11 04:51:00,
2013-07-10 22:52:00,70.9,56.3,29.68,SSE,149,0.0,8.0,60,0.00,,,0.00,Wunderground v.1.15,2013-07-11 04:52:00,
2013-07-10 22:53:00,70.9,56.3,29.68,North,360,2.0,8.0,60,0.00,,,0.00,Wunderground v.1.15,2013-07-11 04:53:00,
2013-07-10 22:54:00,70.9,56.3,29.68,SSE,152,4.0,8.0,60,0.00,,,0.00,Wunderground v.1.15,2013-07-11 04:54:00,
2013-07-10 22:56:00,70.8,56.2,29.68,North,360,7.0,8.0,60,0.00,,,0.00,Wunderground v.1.15,2013-07-11 04:56:00,
2013-07-10 22:58:00,70.8,56.2,29.68,SE,141,8.0,9.0,60,0.00,,,0.00,Wunderground v.1.15,2013-07-11 04:58:00,
2013-07-10 22:59:00,70.7,56.1,29.67,North,360,6.0,9.0,60,0.00,,,0.00,Wunderground v.1.15,2013-07-11 04:59:00,
2013-07-10 23:00:00,70.7,56.1,29.68,SE,140,7.0,7.0,60,0.00,,,0.00,Wunderground v.1.15,2013-07-11 05:00:00,
2013-07-10 23:02:00,70.6,56.0,29.67,SE,140,4.0,11.0,60,0.00,,,0.00,Wunderground v.1.15,2013-07-11 05:02:00,
2013-07-10 23:03:00,70.5,55.9,29.67,North,360,5.0,11.0,60,0.00,,,0.00,Wunderground v.1.15,2013-07-11 05:03:00,
2013-07-10 23:04:00,70.5,55.9,29.67,North,360,4.0,11.0,60,0.00,,,0.00,Wunderground v.1.15,2013-07-11 05:04:00,
2013-07-10 23:05:00,70.5,55.9,29.67,North,360,7.0,11.0,60,0.00,,,0.00,Wunderground v.1.15,2013-07-11 05:05:00,
2013-07-10 23:07:00,70.6,55.6,29.67,North,360,3.0,11.0,59,0.00,,,0.00,Wunderground v.1.15,2013-07-11 05:07:00,
2013-07-10 23:08:00,70.7,55.7,29.67,North,360,4.0,11.0,59,0.00,,,0.00,Wunderground v.1.15,2013-07-11 05:08:00,
2013-07-10 23:09:00,70.8,55.8,29.67,North,360,4.0,11.0,59,0.00,,,0.00,Wunderground v.1.15,2013-07-11 05:09:00,
2013-07-10 23:11:00,70.8,55.8,29.68,South,171,5.0,8.0,59,0.00,,,0.00,Wunderground v.1.15,2013-07-11 05:11:00,
2013-07-10 23:12:00,71.0,55.5,29.67,SSE,159,5.0,8.0,58,0.00,,,0.00,Wunderground v.1.15,2013-07-11 05:12:00,
2013-07-10 23:13:00,71.0,55.5,29.67,North,360,4.0,8.0,58,0.00,,,0.00,Wunderground v.1.15,2013-07-11 05:13:00,
2013-07-10 23:14:00,71.0,55.5,29.67,North,360,4.0,9.0,58,0.00,,,0.00,Wunderground v.1.15,2013-07-11 05:14:00,
2013-07-10 23:16:00,71.0,55.5,29.68,SE,146,5.0,9.0,58,0.00,,,0.00,Wunderground v.1.15,2013-07-11 05:16:00,
2013-07-10 23:18:00,70.9,55.4,29.68,North,360,1.0,9.0,58,0.00,,,0.00,Wunderground v.1.15,2013-07-11 05:18:00,
2013-07-10 23:19:00,70.8,55.3,29.68,SE,141,2.0,9.0,58,0.00,,,0.00,Wunderground v.1.15,2013-07-11 05:19:00,
2013-07-10 23:21:00,70.8,55.3,29.68,SE,140,5.0,6.0,58,0.00,,,0.00,Wunderground v.1.15,2013-07-11 05:21:00,
2013-07-10 23:23:00,70.7,55.2,29.68,SE,137,5.0,7.0,58,0.00,,,0.00,Wunderground v.1.15,2013-07-11 05:23:00,
2013-07-10 23:24:00,70.6,55.1,29.68,North,360,4.0,7.0,58,0.00,,,0.00,Wunderground v.1.15,2013-07-11 05:24:00,
2013-07-10 23:25:00,70.6,55.1,29.68,North,360,1.0,7.0,58,0.00,,,0.00,Wunderground v.1.15,2013-07-11 05:25:00,
2013-07-10 23:26:00,70.6,55.1,29.68,North,360,2.0,7.0,58,0.00,,,0.00,Wunderground v.1.15,2013-07-11 05:26:00,
2013-07-10 23:28:00,70.6,55.1,29.68,North,360,6.0,7.0,58,0.00,,,0.00,Wunderground v.1.15,2013-07-11 05:28:00,
2013-07-10 23:30:00,70.6,55.1,29.69,North,360,5.0,6.0,58,0.00,,,0.00,Wunderground v.1.15,2013-07-11 05:30:00,
2013-07-10 23:31:00,70.6,55.1,29.69,North,360,1.0,6.0,58,0.00,,,0.00,Wunderground v.1.15,2013-07-11 05:31:00,
2013-07-10 23:32:00,70.5,55.0,29.69,SE,144,4.0,8.0,58,0.00,,,0.00,Wunderground v.1.15,2013-07-11 05:32:00,
2013-07-10 23:33:00,70.5,55.0,29.69,SE,145,4.0,8.0,58,0.00,,,0.00,Wunderground v.1.15,2013-07-11 05:33:00,
2013-07-10 23:34:00,70.5,55.0,29.69,SE,144,3.0,8.0,58,0.00,,,0.00,Wunderground v.1.15,2013-07-11 05:34:00,
2013-07-10 23:35:00,70.4,54.9,29.69,SSE,152,5.0,8.0,58,0.00,,,0.00,Wunderground v.1.15,2013-07-11 05:35:00,
2013-07-10 23:36:00,70.2,54.7,29.69,North,360,5.0,8.0,58,0.00,,,0.00,Wunderground v.1.15,2013-07-11 05:36:00,
2013-07-10 23:37:00,70.1,54.6,29.69,North,360,3.0,8.0,58,0.00,,,0.00,Wunderground v.1.15,2013-07-11 05:37:00,
2013-07-10 23:38:00,69.8,54.4,29.70,SSE,159,3.0,8.0,58,0.00,,,0.00,Wunderground v.1.15,2013-07-11 05:38:00,
2013-07-10 23:39:00,69.8,54.4,29.70,North,360,5.0,8.0,58,0.00,,,0.00,Wunderground v.1.15,2013-07-11 05:39:00,
2013-07-10 23:41:00,69.4,54.4,29.70,SSE,159,3.0,5.0,59,0.00,,,0.00,Wunderground v.1.15,2013-07-11 05:41:00,
2013-07-10 23:42:00,69.3,54.4,29.69,North,360,2.0,5.0,59,0.00,,,0.00,Wunderground v.1.15,2013-07-11 05:42:00,
2013-07-10 23:43:00,69.2,54.7,29.69,SSE,159,0.0,5.0,60,0.00,,,0.00,Wunderground v.1.15,2013-07-11 05:43:00,
2013-07-10 23:44:00,69.2,54.7,29.69,SSE,160,5.0,5.0,60,0.00,,,0.00,Wunderground v.1.15,2013-07-11 05:44:00,
2013-07-10 23:46:00,69.0,54.5,29.69,SSE,157,5.0,6.0,60,0.00,,,0.00,Wunderground v.1.15,2013-07-11 05:46:00,
2013-07-10 23:47:00,68.9,54.4,29.69,North,360,4.0,6.0,60,0.00,,,0.00,Wunderground v.1.15,2013-07-11 05:47:00,
2013-07-10 23:48:00,68.9,54.4,29.70,SSE,153,5.0,6.0,60,0.00,,,0.00,Wunderground v.1.15,2013-07-11 05:48:00,
2013-07-10 23:49:00,68.9,54.4,29.69,SSE,150,3.0,6.0,60,0.00,,,0.00,Wunderground v.1.15,2013-07-11 05:49:00,
2013-07-10 23:51:00,68.9,54.4,29.70,SE,146,4.0,7.0,60,0.00,,,0.00,Wunderground v.1.15,2013-07-11 05:51:00,
2013-07-10 23:53:00,68.9,54.4,29.70,SE,145,3.0,7.0,60,0.00,,,0.00,Wunderground v.1.15,2013-07-11 05:53:00,
2013-07-10 23:54:00,68.9,54.4,29.70,SE,146,1.0,7.0,60,0.00,,,0.00,Wunderground v.1.15,2013-07-11 05:54:00,
2013-07-10 23:56:00,68.9,54.4,29.70,SE,146,2.0,7.0,60,0.00,,,0.00,Wunderground v.1.15,2013-07-11 05:56:00,
2013-07-10 23:59:00,68.8,54.3,29.70,SSE,147,3.0,7.0,60,0.00,,,0.00,Wunderground v.1.15,2013-07-11 05:59:00,